GFSWCAN_850_dewp_198.txt.gz
Dewpoint
-5 -4 -5 -4 -4 -4 -4 -5 -4 -5 -5 -6 -6 -6 -6 -5 -5 -5 -6 -5 -3 -2 -3 -3 -7 -5 -3 -2 -2 -4 -3 -1 1 2 1 0 -1 -4 -4 -3 1 1 1 1 -0 2 2 -5 -4 -3 -3 -5 -6 -5
-5 -5 -5 -5 -6 -5 -6 -4 -6 -7 -7 -6 -6 -6 -6 -6 -5 -6 -4 -6 -5 -3 -2 -3 -4 -4 -2 -2 -3 -3 -2 -3 0 3 2 1 -2 -4 -6 -4 -2 0 -1 1 -1 -0 -4 -5 -4 -6 -5 -5 -5 -5
-10 -8 -5 -5 -5 -6 -6 -6 -5 -6 -6 -5 -5 -5 -5 -6 -5 -5 -4 -6 -5 -3 -5 -4 -4 -9 -7 -6 -5 -2 -4 -3 -3 -2 -1 2 3 -0 -1 -4 -4 -3 -4 -2 -2 -3 -4 -5 -4 -5 -5 -6 -5 -5
-22 -16 -6 -6 -6 -6 -5 -6 -6 -6 -5 -5 -5 -5 -6 -6 -6 -5 -5 -7 -4 -3 -3 -6 -7 -7 -6 -5 -4 -4 -3 -3 -4 -4 -2 -2 -2 -3 1 -1 -3 -7 -4 -3 -2 -3 -4 -5 -5 -5 -4 -5 -4 -4
-6 -6 -6 -7 -7 -6 -7 -6 -6 -6 -6 -5 -6 -5 -5 -6 -6 -6 -6 -7 -6 -4 -4 -4 -5 -7 -5 -5 -4 -4 -3 -3 -2 -2 -1 -2 -4 -0 2 1 1 -4 -3 -3 -2 -4 -4 -5 -5 -5 -4 -4 -4 -4
-6 -6 -6 -6 -6 -6 -6 -5 -4 -5 -5 -6 -6 -6 -5 -7 -7 -4 -4 -6 -9 -7 -3 -3 -7 -6 -8 -6 -7 -6 -4 -3 -3 -2 -2 -1 -2 -4 -2 1 -1 -2 -4 -5 -4 -4 -4 -4 -5 -4 -3 -3 -3 -3
-7 -7 -6 -5 -5 -6 -6 -7 -6 -6 -6 -6 -7 -7 -8 -8 -5 -4 -4 -7 -9 -5 -4 -4 -3 -4 -5 -5 -4 -4 -6 -6 -4 -4 -3 -3 -3 -1 1 1 -3 -2 -3 -4 -4 -4 -3 -3 -3 -3 -3 -2 -2 -2
-8 -6 -6 -7 -7 -7 -7 -6 -6 -6 -5 -6 -6 -7 -6 -6 -7 -6 -18 -14 -7 -4 -4 -4 -6 -7 -9 -6 -4 -4 -4 -3 -3 -4 -5 -4 -5 -4 -2 -5 -7 -0 -1 -3 -4 -4 -4 -3 -2 -2 -2 -1 -1 -1
-6 -7 -7 -7 -6 -6 -6 -6 -6 -7 -6 -6 -6 -6 -7 -12 -8 -8 -7 -4 -4 -4 -3 -2 -3 -4 -7 -6 -5 -2 -4 -2 -2 -2 -3 -4 -3 -2 -4 -7 -9 -2 -0 -2 -3 -3 -2 -2 -1 -1 -1 -1 -1 -2
-7 -9 -8 -7 -9 -7 -6 -6 -8 -6 -7 -6 -7 -8 -6 -15 -11 -8 -8 -8 -8 -7 -4 -4 -6 -4 -5 -5 -3 -1 -1 -1 -0 -2 -4 -1 -2 -5 -6 -7 -3 -2 -1 -2 -0 -0 -0 0 -0 -0 -1 -2 -2 -3
-7 -8 -7 -7 -8 -8 -7 -8 -6 -7 -6 -8 -8 -8 -9 -7 -6 -5 -5 -3 -2 -2 -3 -3 -4 -3 -2 -1 -1 -2 -1 -1 -0 -3 -2 -2 -3 -5 -6 -6 -7 -1 -1 -2 -2 -3 -2 -2 -1 -1 -3 -3 -4 -4
-9 -7 -7 -8 -8 -7 -7 -7 -7 -7 -6 -5 -5 -7 -6 -5 -4 -4 -3 -1 -1 -1 -3 -1 -1 -2 -1 -1 -1 -1 -1 -1 -1 -2 0 -2 -6 -8 -5 -6 -6 -3 -2 -2 -1 -2 -1 -1 -1 -2 -3 -5 -5 -8
-7 -7 -8 -11 -8 -7 -8 -7 -9 -6 -5 -6 -10 -5 -5 -6 -4 -3 -4 -4 -5 -5 -4 -6 -4 -1 -2 -1 -1 -0 -0 -1 -2 -1 -2 -3 -2 -1 -6 -3 -2 -1 -1 -1 -1 -1 -1 -2 -3 -4 -6 -8 -11 -15
-6 -7 -7 -12 -12 -10 -7 -9 -9 -5 -6 -7 -5 -4 -4 -4 -4 -5 -6 -6 -6 -7 -6 -6 -4 -1 -1 -1 -1 -1 -1 -3 -3 -4 -6 -4 -2 -1 -0 -1 -1 -1 -2 -2 -3 -4 -5 -5 -5 -8 -10 -14 -18 -18
-6 -7 -8 -12 -12 -7 -8 -9 -7 -11 -8 -5 -5 -6 -5 -6 -7 -7 -6 -6 -6 -6 -6 -5 -4 -2 -2 -2 -2 -3 -3 -4 -3 -4 -3 -3 -2 -1 -1 -2 -3 -4 -5 -5 -4 -4 -4 -6 -13 -16 -17 -18 -18 -20
-7 -8 -10 -10 -7 -7 -8 -10 -13 -10 -6 -6 -6 -6 -7 -7 -8 -9 -7 -8 -8 -6 -7 -6 -3 -2 -2 -2 -3 -3 -3 -4 -3 -4 -3 -3 -3 -4 -4 -5 -5 -6 -6 -6 -6 -7 -13 -17 -18 -17 -17 -18 -18 -17
-6 -6 -8 -7 -8 -8 -11 -13 -9 -6 -6 -6 -6 -8 -7 -7 -7 -7 -8 -8 -8 -7 -6 -3 -3 -4 -4 -2 -3 -5 -4 -4 -4 -4 -5 -5 -6 -6 -6 -6 -6 -6 -7 -6 -12 -17 -17 -17 -17 -17 -17 -16 -15 -17
-7 -8 -7 -7 -9 -10 -13 -11 -7 -6 -6 -7 -7 -8 -8 -8 -8 -9 -9 -9 -7 -6 -5 -5 -6 -5 -6 -6 -5 -5 -5 -6 -6 -7 -7 -7 -7 -7 -7 -7 -7 -12 -13 -11 -11 -14 -15 -16 -17 -15 -15 -16 -17 -17
-8 -8 -8 -10 -10 -11 -14 -8 -8 -7 -7 -7 -8 -8 -8 -8 -10 -10 -10 -9 -7 -7 -7 -8 -8 -8 -8 -6 -6 -6 -6 -7 -7 -7 -7 -7 -7 -6 -6 -6 -7 -10 -13 -14 -15 -16 -16 -16 -15 -16 -16 -16 -16 -16
-8 -9 -11 -10 -13 -14 -11 -8 -8 -8 -8 -8 -8 -9 -8 -8 -10 -10 -10 -10 -9 -10 -10 -10 -10 -10 -10 -8 -6 -7 -7 -7 -7 -8 -8 -8 -7 -8 -10 -13 -13 -14 -15 -16 -15 -15 -15 -15 -15 -15 -15 -15 -15 -15
-8 -10 -10 -13 -14 -15 -13 -10 -8 -9 -10 -9 -8 -9 -8 -9 -9 -11 -11 -13 -14 -12 -11 -11 -11 -11 -10 -8 -8 -7 -7 -7 -8 -8 -8 -9 -10 -13 -14 -14 -15 -15 -14 -14 -14 -14 -15 -15 -14 -14 -15 -15 -15 -15
-8 -9 -11 -14 -15 -15 -14 -14 -12 -12 -11 -9 -9 -9 -9 -10 -10 -10 -12 -13 -13 -13 -13 -11 -12 -11 -8 -8 -8 -8 -7 -8 -8 -8 -9 -12 -14 -14 -13 -13 -15 -14 -14 -14 -14 -14 -14 -14 -14 -14 -14 -14 -14 -14
-10 -13 -14 -15 -15 -15 -15 -13 -12 -13 -10 -11 -9 -9 -10 -11 -11 -13 -12 -12 -13 -14 -13 -12 -11 -10 -10 -11 -10 -11 -11 -12 -13 -12 -12 -13 -13 -13 -14 -14 -14 -14 -14 -13 -13 -13 -13 -13 -14 -14 -14 -14 -14 -14
-13 -15 -15 -14 -13 -14 -13 -12 -12 -12 -12 -11 -10 -10 -11 -12 -13 -12 -12 -13 -14 -14 -12 -12 -11 -12 -12 -12 -12 -12 -12 -12 -12 -13 -13 -13 -14 -14 -14 -13 -13 -13 -13 -13 -13 -13 -13 -14 -14 -14 -14 -14 -14 -13
-15 -13 -13 -15 -12 -13 -15 -15 -15 -14 -12 -12 -10 -11 -12 -12 -11 -12 -12 -13 -14 -14 -13 -13 -12 -13 -13 -13 -12 -12 -13 -13 -13 -13 -13 -13 -13 -13 -12 -12 -13 -13 -13 -13 -13 -14 -14 -14 -14 -14 -14 -14 -13 -13
-14 -12 -14 -12 -13 -14 -13 -14 -14 -15 -14 -14 -13 -13 -12 -12 -13 -12 -13 -15 -15 -15 -14 -15 -15 -15 -15 -15 -15 -15 -15 -15 -15 -15 -14 -14 -13 -13 -13 -13 -13 -14 -14 -14 -14 -14 -14 -14 -14 -14 -13 -13 -13 -13
-15 -15 -11 -11 -12 -11 -12 -11 -12 -13 -16 -15 -14 -14 -13 -12 -12 -13 -14 -15 -15 -15 -15 -16 -16 -15 -15 -15 -15 -15 -15 -15 -15 -14 -14 -14 -14 -14 -14 -14 -14 -14 -14 -14 -14 -14 -14 -14 -13 -13 -13 -13 -13 -13
-12 -12 -15 -12 -12 -12 -12 -13 -14 -13 -13 -13 -13 -17 -17 -14 -14 -15 -15 -15 -14 -14 -15 -16 -16 -16 -16 -16 -16 -15 -15 -15 -14 -14 -14 -14 -14 -14 -14 -14 -14 -14 -14 -14 -14 -14 -14 -14 -13 -13 -13 -13 -13 -13
-12 -12 -12 -14 -13 -13 -14 -13 -13 -14 -14 -13 -15 -16 -15 -17 -16 -16 -15 -15 -14 -15 -15 -15 -15 -16 -16 -16 -16 -16 -16 -16 -15 -15 -14 -14 -14 -14 -14 -14 -14 -14 -14 -14 -14 -14 -13 -14 -14 -13 -13 -13 -13 -13
-13 -12 -13 -14 -16 -14 -14 -14 -14 -15 -15 -15 -16 -17 -17 -17 -16 -15 -15 -15 -14 -14 -14 -14 -15 -15 -16 -16 -16 -16 -16 -16 -15 -15 -15 -15 -15 -14 -14 -14 -14 -14 -14 -14 -14 -13 -13 -13 -13 -13 -13 -13 -13 -13
-12 -12 -13 -14 -14 -14 -14 -14 -13 -14 -15 -16 -16 -17 -17 -16 -16 -16 -15 -15 -15 -14 -14 -14 -14 -14 -15 -16 -16 -16 -16 -16 -15 -15 -15 -15 -15 -14 -14 -14 -14 -14 -14 -13 -13 -13 -13 -13 -13 -13 -13 -13 -13 -13
-13 -14 -14 -17 -14 -13 -13 -13 -13 -13 -14 -14 -15 -15 -15 -16 -16 -16 -16 -15 -15 -15 -15 -14 -14 -15 -15 -16 -16 -16 -16 -16 -15 -15 -15 -15 -15 -14 -14 -14 -14 -14 -13 -13 -13 -13 -13 -13 -13 -13 -13 -13 -14 -13
-13 -13 -14 -14 -14 -14 -14 -14 -14 -14 -15 -15 -15 -15 -15 -16 -17 -16 -16 -16 -16 -15 -15 -15 -15 -15 -16 -16 -16 -16 -16 -16 -15 -15 -15 -15 -15 -14 -14 -14 -14 -13 -13 -13 -13 -13 -13 -13 -13 -13 -13 -13 -13 -13

GFSWCAN_850_dewp_201.txt.gz
Dewpoint
-3 -3 -4 -4 -3 -4 -5 -5 -5 -5 -5 -6 -6 -6 -6 -7 -7 -7 -7 -7 -4 -4 -4 -5 -7 -4 -4 -4 -2 -5 -5 -6 -3 1 3 1 2 -1 -1 -3 -0 -1 1 1 0 1 1 -5 -4 -3 -4 -5 -7 -6
-7 -5 -5 -5 -5 -5 -5 -5 -5 -6 -5 -5 -5 -6 -5 -6 -6 -6 -5 -7 -5 -4 -4 -5 -7 -8 -7 -5 -3 -3 -3 -4 -4 -2 -2 -1 -2 -2 -1 3 -5 -2 -3 -0 -1 -1 -5 -5 -6 -6 -5 -6 -6 -6
-7 -6 -6 -6 -6 -5 -5 -5 -6 -6 -6 -6 -7 -6 -6 -6 -6 -5 -5 -6 -5 -4 -5 -5 -6 -8 -7 -5 -6 -3 -5 -5 -3 -5 -3 -2 -1 -2 -1 1 -1 -2 -4 -2 -1 -3 -3 -4 -5 -5 -5 -5 -5 -6
-6 -6 -5 -5 -5 -5 -6 -6 -6 -6 -5 -6 -6 -5 -6 -6 -6 -6 -5 -7 -5 -5 -4 -6 -8 -7 -9 -7 -6 -6 -7 -6 -5 -4 -4 -3 -2 -5 -5 -6 -4 -4 -2 1 -2 -3 -4 -4 -5 -5 -5 -5 -5 -5
-5 -6 -6 -6 -6 -6 -6 -6 -6 -6 -6 -5 -6 -6 -7 -6 -5 -5 -6 -7 -7 -4 -6 -7 -10 -9 -7 -7 -8 -8 -6 -3 -2 -2 -2 -2 -4 -2 -3 -5 -4 -6 -4 0 1 -2 -4 -5 -6 -5 -5 -5 -5 -5
-5 -6 -6 -6 -6 -5 -5 -6 -6 -6 -6 -6 -6 -6 -6 -6 -6 -5 -5 -8 -9 -8 -4 -4 -6 -5 -7 -7 -7 -7 -6 -4 -2 -2 -2 -3 -4 -4 -3 -4 -7 -9 -9 -9 -5 -2 -2 -4 -4 -5 -5 -4 -4 -4
-6 -5 -6 -6 -6 -7 -7 -6 -7 -6 -6 -6 -7 -7 -8 -7 -6 -4 -5 -10 -7 -6 -4 -5 -8 -9 -12 -12 -7 -6 -6 -6 -4 -3 -3 -4 -4 -3 -3 -2 -6 -7 -6 -4 -5 -3 -2 -1 -4 -4 -4 -3 -3 -3
-6 -7 -6 -6 -7 -7 -6 -6 -6 -6 -6 -6 -6 -7 -8 -7 -9 -5 -14 -11 -7 -4 -4 -5 -5 -8 -10 -7 -5 -6 -4 -4 -5 -5 -5 -4 -5 -5 -3 -5 -7 -7 -7 -8 -8 -9 -7 0 -2 -3 -3 -3 -2 -2
-10 -6 -5 -6 -6 -6 -6 -6 -6 -7 -7 -7 -8 -9 -8 -12 -8 -9 -7 -7 -6 -5 -4 -4 -5 -6 -9 -9 -9 -8 -6 -3 -3 -3 -4 -5 -3 -2 -5 -7 -8 -8 -7 -8 -8 -9 -6 -1 -0 -2 -2 -2 -2 -1
-12 -7 -6 -7 -7 -6 -7 -6 -6 -6 -7 -7 -8 -10 -7 -14 -10 -9 -9 -9 -8 -7 -5 -5 -8 -6 -7 -5 -2 -2 -2 -2 -1 -3 -4 -2 -3 -6 -6 -7 -8 -8 -8 -8 -8 -8 -2 -1 -0 -1 -2 -2 -2 -2
-8 -7 -7 -7 -6 -6 -6 -7 -7 -7 -6 -6 -8 -9 -10 -8 -6 -6 -5 -5 -6 -4 -5 -5 -5 -5 -6 -4 -4 -4 -1 -1 -1 -3 -2 -3 -3 -6 -6 -6 -6 -7 -7 -8 -8 -8 -5 -2 -1 -1 -2 -1 -2 -1
-7 -7 -6 -8 -9 -6 -6 -7 -7 -6 -5 -6 -5 -6 -6 -6 -5 -5 -6 -6 -4 -4 -4 -4 -6 -7 -5 -2 -2 -1 -1 -2 -2 -4 -2 -3 -7 -9 -9 -8 -6 -6 -6 -7 -7 -5 -1 -1 -1 -2 -1 -2 -3 -4
-9 -10 -9 -7 -7 -7 -9 -9 -8 -7 -7 -7 -10 -7 -6 -7 -6 -5 -5 -7 -6 -5 -6 -6 -7 -7 -5 -2 -1 -1 -1 -1 -4 -2 -3 -4 -6 -6 -7 -8 -6 -6 -5 -6 -6 -6 -1 -1 -1 -1 -2 -4 -3 -3
-8 -9 -9 -8 -8 -9 -11 -7 -7 -6 -6 -9 -8 -8 -8 -11 -5 -5 -6 -6 -7 -6 -7 -8 -7 -5 -5 -1 -1 -1 -4 -4 -2 -3 -4 -7 -4 -3 -2 -1 -1 -3 -3 -6 -4 -1 -1 -3 -6 -6 -4 -4 -4 -8
-10 -8 -8 -9 -10 -9 -8 -7 -6 -5 -8 -8 -7 -9 -11 -7 -7 -7 -7 -8 -7 -9 -8 -7 -6 -5 -5 -2 -2 -3 -3 -5 -3 -4 -4 -4 -3 -3 -2 -1 -0 -2 -3 -2 -3 -6 -7 -6 -5 -5 -5 -7 -11 -18
-7 -6 -7 -10 -8 -7 -7 -7 -8 -10 -7 -7 -6 -7 -7 -8 -9 -9 -8 -8 -9 -8 -8 -7 -7 -5 -2 -3 -4 -5 -4 -4 -4 -4 -5 -5 -6 -6 -6 -6 -6 -6 -6 -6 -7 -7 -7 -6 -6 -8 -14 -18 -18 -18
-6 -7 -8 -9 -7 -7 -7 -9 -11 -8 -8 -6 -7 -6 -7 -8 -8 -8 -9 -9 -9 -9 -7 -7 -5 -4 -4 -5 -5 -5 -5 -6 -7 -7 -7 -7 -7 -7 -7 -8 -8 -8 -8 -7 -6 -6 -10 -14 -16 -17 -17 -15 -17 -18
-7 -8 -8 -8 -8 -8 -10 -12 -9 -7 -7 -7 -7 -8 -8 -8 -8 -10 -10 -10 -9 -8 -6 -7 -7 -7 -6 -6 -6 -6 -7 -7 -8 -8 -8 -8 -8 -8 -8 -8 -8 -7 -8 -9 -9 -8 -7 -9 -15 -16 -16 -17 -18 -17
-6 -7 -8 -8 -9 -10 -12 -10 -8 -8 -7 -7 -8 -8 -8 -9 -11 -11 -11 -10 -8 -8 -8 -9 -10 -9 -9 -8 -9 -7 -8 -8 -8 -9 -8 -8 -8 -7 -7 -7 -6 -6 -7 -10 -14 -15 -15 -16 -16 -16 -16 -17 -17 -16
-7 -7 -9 -10 -10 -14 -14 -9 -8 -9 -8 -8 -8 -9 -8 -8 -10 -11 -11 -11 -11 -11 -12 -11 -11 -11 -11 -10 -8 -8 -8 -8 -8 -9 -9 -8 -7 -8 -9 -11 -11 -13 -14 -14 -15 -15 -16 -15 -15 -15 -15 -15 -16 -15
-8 -9 -8 -9 -13 -14 -14 -10 -8 -8 -9 -9 -8 -8 -8 -9 -10 -11 -13 -15 -15 -13 -13 -12 -12 -12 -11 -10 -9 -8 -8 -8 -9 -9 -9 -9 -10 -12 -12 -12 -14 -14 -15 -15 -15 -14 -15 -14 -14 -14 -15 -15 -15 -15
-8 -8 -9 -12 -14 -14 -14 -14 -13 -11 -10 -9 -9 -8 -10 -10 -11 -11 -15 -14 -13 -14 -14 -13 -12 -12 -10 -9 -9 -8 -9 -8 -11 -11 -11 -11 -12 -12 -13 -14 -15 -15 -14 -14 -14 -14 -14 -14 -14 -14 -14 -14 -14 -14
-11 -11 -13 -15 -15 -15 -15 -13 -12 -13 -11 -10 -8 -9 -10 -11 -11 -14 -13 -13 -14 -14 -14 -13 -12 -11 -11 -10 -11 -12 -12 -12 -12 -12 -12 -13 -13 -13 -14 -14 -14 -14 -14 -13 -13 -13 -13 -14 -14 -14 -14 -14 -14 -14
-12 -15 -15 -14 -13 -15 -13 -12 -12 -12 -12 -10 -10 -10 -11 -12 -13 -13 -13 -13 -14 -14 -13 -13 -11 -11 -12 -13 -13 -13 -13 -13 -13 -13 -13 -14 -14 -13 -13 -13 -13 -13 -13 -13 -13 -14 -14 -14 -14 -14 -14 -14 -14 -13
-14 -14 -13 -14 -12 -13 -17 -17 -18 -15 -14 -13 -10 -11 -12 -11 -12 -13 -13 -14 -15 -15 -14 -13 -13 -13 -14 -14 -14 -14 -13 -13 -13 -12 -12 -12 -12 -13 -13 -14 -14 -14 -14 -14 -14 -14 -14 -14 -14 -14 -13 -13 -13 -13
-16 -12 -15 -13 -13 -15 -15 -15 -16 -16 -16 -15 -13 -12 -12 -12 -13 -13 -14 -15 -15 -15 -15 -14 -14 -15 -15 -15 -15 -15 -14 -14 -14 -14 -14 -14 -14 -14 -14 -14 -14 -14 -14 -14 -14 -14 -14 -14 -13 -13 -13 -13 -13 -13
-15 -15 -12 -12 -12 -11 -12 -12 -12 -15 -18 -17 -15 -13 -12 -13 -13 -14 -15 -15 -15 -15 -15 -16 -15 -15 -15 -15 -15 -15 -14 -14 -14 -14 -14 -14 -14 -14 -14 -14 -14 -14 -14 -14 -14 -14 -14 -14 -13 -13 -13 -13 -13 -13
-12 -12 -14 -12 -12 -12 -14 -14 -16 -15 -15 -13 -15 -18 -16 -15 -15 -16 -16 -15 -15 -14 -15 -16 -16 -16 -16 -16 -16 -15 -15 -14 -14 -14 -14 -14 -14 -14 -14 -14 -14 -14 -14 -14 -14 -14 -13 -13 -14 -13 -13 -13 -13 -13
-12 -12 -12 -13 -13 -14 -14 -14 -14 -14 -15 -14 -17 -18 -17 -17 -17 -16 -16 -15 -15 -14 -15 -15 -16 -16 -16 -16 -16 -16 -16 -15 -15 -15 -15 -14 -14 -14 -14 -14 -14 -14 -14 -14 -14 -13 -13 -13 -13 -13 -13 -13 -13 -13
-13 -13 -13 -14 -17 -15 -14 -14 -15 -15 -15 -16 -17 -17 -17 -17 -16 -16 -16 -15 -14 -14 -14 -14 -14 -15 -16 -16 -16 -16 -16 -16 -16 -15 -15 -15 -15 -14 -14 -14 -14 -14 -14 -13 -13 -13 -13 -13 -13 -13 -13 -13 -13 -13
-13 -13 -13 -14 -15 -14 -14 -14 -14 -15 -16 -16 -17 -17 -17 -16 -16 -16 -15 -15 -15 -14 -14 -14 -14 -15 -15 -16 -16 -16 -16 -16 -15 -15 -15 -15 -15 -15 -14 -14 -14 -14 -14 -13 -13 -13 -13 -13 -13 -13 -13 -13 -14 -14
-13 -14 -14 -18 -14 -14 -14 -13 -14 -14 -14 -15 -15 -15 -16 -16 -16 -16 -16 -15 -15 -15 -15 -15 -15 -15 -15 -16 -16 -16 -16 -16 -16 -16 -16 -15 -15 -15 -14 -14 -14 -14 -13 -13 -13 -13 -13 -13 -13 -13 -14 -14 -14 -14
-13 -14 -14 -14 -14 -14 -14 -14 -14 -15 -15 -15 -15 -16 -16 -16 -17 -16 -16 -16 -16 -15 -15 -16 -16 -16 -16 -16 -16 -16 -16 -16 -16 -16 -16 -15 -15 -14 -14 -14 -13 -13 -13 -13 -13 -13 -13 -13 -14 -14 -14 -14 -14 -13

GFSWCAN_850_dewp_207.txt.gz
Dewpoint
-22 -19 -14 -13 -14 -14 -10 -6 -5 -5 -5 -5 -5 -5 -6 -6 -6 -5 -4 -5 -4 -4 -5 -6 -6 -5 -5 -5 -5 -8 -7 -9 -4 -4 -4 -5 -3 -6 -6 -3 -3 -3 -2 -2 1 3 3 -6 -5 -2 -3 -3 -3 -2
-7 -6 -12 -7 -5 -5 -5 -4 -4 -4 -4 -5 -5 -5 -6 -5 -5 -4 -4 -5 -4 -4 -5 -4 -5 -6 -6 -7 -5 -6 -7 -7 -6 -5 -6 -7 -7 -7 -7 -5 -10 -5 -4 -2 -1 -0 -4 -3 -7 -7 -5 -3 -3 -2
-4 -5 -4 -5 -5 -4 -4 -5 -4 -4 -5 -5 -5 -4 -4 -4 -4 -5 -5 -6 -4 -4 -5 -5 -5 -10 -9 -9 -9 -5 -7 -6 -6 -6 -6 -5 -4 -6 -5 -8 -7 -10 -5 -5 -3 -7 -7 -9 -10 -9 -5 -6 -6 -4
-5 -5 -5 -5 -4 -5 -4 -4 -5 -5 -5 -6 -6 -4 -4 -4 -5 -6 -4 -7 -4 -5 -5 -7 -10 -9 -11 -11 -11 -8 -8 -9 -7 -6 -5 -5 -5 -7 -6 -7 -7 -6 -7 -7 -6 -7 -9 -10 -11 -12 -8 -7 -6 -6
-5 -5 -5 -5 -5 -5 -5 -5 -5 -5 -7 -8 -6 -6 -8 -6 -5 -5 -6 -11 -10 -5 -8 -8 -8 -11 -10 -11 -10 -9 -8 -7 -5 -5 -5 -5 -6 -7 -7 -7 -6 -9 -8 -7 -6 -9 -9 -10 -9 -9 -7 -3 -2 -4
-6 -5 -5 -5 -6 -6 -6 -6 -5 -5 -6 -8 -7 -6 -5 -5 -6 -5 -6 -10 -12 -8 -5 -6 -10 -9 -10 -10 -9 -9 -9 -7 -6 -5 -6 -6 -6 -6 -5 -5 -9 -9 -9 -8 -8 -8 -9 -8 -8 -9 -6 -6 -5 -6
-6 -6 -7 -6 -6 -6 -6 -6 -5 -5 -5 -6 -6 -6 -6 -6 -5 -4 -7 -11 -8 -5 -5 -5 -6 -9 -9 -11 -11 -10 -10 -7 -6 -5 -5 -5 -6 -6 -4 -4 -9 -9 -9 -9 -9 -9 -8 -8 -8 -8 -6 -6 -6 -9
-9 -10 -7 -6 -6 -7 -6 -6 -5 -6 -6 -6 -7 -7 -7 -9 -11 -12 -16 -12 -8 -4 -5 -5 -8 -10 -12 -12 -8 -7 -7 -6 -5 -6 -6 -6 -6 -5 -4 -7 -8 -9 -9 -8 -8 -8 -8 -9 -8 -7 -7 -8 -6 -4
-9 -11 -9 -8 -7 -7 -8 -6 -6 -7 -7 -6 -6 -7 -13 -13 -12 -13 -11 -10 -8 -6 -6 -7 -9 -8 -9 -9 -9 -8 -5 -4 -6 -5 -5 -5 -5 -4 -7 -9 -10 -9 -8 -8 -8 -8 -8 -8 -8 -8 -8 -7 -5 -4
-8 -9 -7 -7 -10 -10 -7 -7 -11 -6 -7 -7 -9 -11 -10 -12 -10 -9 -9 -7 -6 -6 -5 -5 -6 -6 -7 -6 -6 -5 -4 -5 -6 -6 -6 -3 -5 -8 -8 -6 -7 -8 -9 -9 -9 -8 -8 -8 -8 -8 -8 -8 -6 -7
-7 -7 -11 -11 -8 -10 -12 -8 -8 -8 -7 -7 -8 -10 -10 -8 -8 -7 -7 -7 -7 -7 -6 -5 -6 -6 -7 -6 -7 -6 -5 -6 -4 -5 -4 -4 -3 -6 -7 -7 -6 -6 -5 -5 -7 -8 -8 -8 -8 -8 -8 -8 -7 -3
-10 -12 -9 -9 -9 -10 -9 -7 -7 -6 -5 -6 -6 -5 -6 -7 -8 -9 -12 -7 -6 -5 -6 -5 -6 -8 -10 -9 -5 -5 -4 -4 -4 -4 -3 -4 -5 -9 -8 -8 -8 -7 -7 -6 -5 -4 -5 -7 -7 -8 -8 -8 -6 -2
-10 -9 -11 -12 -9 -8 -7 -8 -9 -7 -8 -6 -6 -7 -8 -9 -8 -10 -13 -11 -10 -8 -8 -7 -9 -10 -10 -8 -5 -5 -3 -3 -4 -3 -3 -4 -9 -9 -8 -8 -8 -9 -9 -8 -7 -6 -5 -4 -6 -7 -8 -8 -3 -1
-12 -9 -10 -9 -9 -9 -8 -9 -10 -7 -6 -6 -7 -11 -12 -15 -13 -12 -9 -9 -8 -9 -8 -9 -9 -9 -9 -7 -6 -5 -5 -4 -3 -4 -5 -9 -9 -9 -8 -9 -9 -8 -8 -7 -7 -6 -5 -4 -5 -7 -6 -4 -4 -2
-8 -10 -9 -8 -8 -8 -9 -8 -8 -7 -6 -7 -9 -12 -14 -12 -10 -8 -8 -10 -9 -9 -10 -10 -9 -8 -8 -7 -6 -4 -5 -5 -6 -7 -9 -9 -9 -9 -9 -9 -9 -9 -8 -6 -3 -3 -2 -4 -5 -4 -4 -4 -4 -6
-10 -9 -10 -9 -8 -9 -9 -8 -7 -6 -8 -8 -8 -9 -10 -10 -10 -9 -9 -10 -12 -11 -11 -10 -9 -8 -7 -6 -5 -6 -6 -7 -8 -9 -9 -9 -9 -10 -10 -10 -9 -9 -9 -8 -7 -6 -5 -5 -5 -6 -6 -6 -6 -5
-9 -7 -9 -8 -8 -8 -8 -7 -7 -8 -9 -9 -8 -8 -8 -8 -8 -9 -10 -13 -11 -11 -11 -9 -8 -7 -7 -7 -7 -8 -8 -8 -9 -9 -10 -10 -10 -10 -10 -10 -10 -9 -9 -9 -9 -9 -8 -8 -7 -6 -6 -6 -9 -13
-8 -8 -8 -8 -7 -8 -8 -9 -9 -10 -10 -9 -8 -8 -8 -9 -11 -11 -12 -12 -11 -11 -10 -9 -9 -10 -10 -10 -9 -10 -11 -9 -9 -10 -10 -10 -9 -10 -10 -10 -10 -9 -9 -9 -9 -8 -7 -8 -8 -9 -10 -10 -11 -14
-8 -8 -7 -6 -7 -8 -9 -11 -11 -9 -9 -8 -8 -8 -9 -10 -11 -12 -12 -12 -11 -11 -11 -11 -12 -12 -11 -11 -12 -12 -9 -9 -9 -10 -10 -9 -9 -9 -9 -9 -9 -9 -9 -9 -9 -9 -9 -9 -10 -12 -13 -15 -15 -13
-7 -7 -7 -7 -7 -8 -11 -12 -10 -8 -9 -9 -9 -9 -9 -10 -11 -12 -13 -13 -12 -12 -13 -13 -13 -13 -13 -13 -13 -11 -10 -9 -9 -10 -11 -12 -12 -13 -13 -12 -11 -11 -12 -12 -11 -11 -12 -12 -11 -12 -13 -13 -14 -13
-7 -7 -7 -7 -7 -9 -12 -12 -9 -8 -9 -9 -9 -9 -9 -10 -11 -12 -13 -14 -15 -15 -15 -15 -15 -14 -13 -13 -12 -11 -10 -9 -11 -12 -11 -13 -13 -13 -14 -14 -14 -14 -14 -14 -14 -13 -14 -13 -13 -13 -13 -13 -14 -14
-7 -8 -8 -9 -10 -13 -13 -13 -13 -12 -13 -9 -9 -9 -10 -11 -12 -12 -14 -15 -15 -15 -16 -15 -14 -14 -13 -13 -12 -10 -10 -12 -13 -14 -14 -14 -14 -14 -14 -13 -14 -13 -13 -13 -13 -14 -13 -13 -14 -14 -14 -14 -14 -14
-9 -11 -11 -12 -14 -14 -15 -14 -12 -12 -14 -11 -9 -10 -11 -11 -12 -14 -14 -14 -15 -15 -15 -14 -14 -14 -13 -12 -11 -13 -13 -13 -14 -13 -13 -13 -13 -14 -14 -14 -14 -14 -14 -14 -14 -14 -14 -14 -14 -14 -14 -14 -14 -14
-11 -12 -14 -14 -13 -15 -13 -12 -12 -13 -12 -13 -12 -11 -11 -11 -11 -13 -14 -14 -15 -14 -14 -13 -12 -12 -12 -11 -12 -13 -13 -13 -13 -13 -14 -14 -14 -14 -14 -14 -14 -14 -14 -14 -14 -14 -14 -14 -13 -14 -13 -13 -13 -13
-11 -14 -13 -13 -12 -13 -19 -19 -17 -16 -15 -17 -14 -12 -12 -11 -12 -13 -13 -14 -14 -14 -14 -13 -13 -13 -12 -13 -14 -14 -14 -14 -14 -14 -14 -14 -14 -14 -14 -14 -14 -14 -14 -14 -14 -14 -13 -13 -13 -13 -13 -13 -13 -13
-16 -13 -13 -14 -13 -16 -17 -15 -17 -17 -19 -17 -16 -13 -12 -13 -13 -13 -14 -15 -15 -15 -14 -15 -15 -15 -15 -15 -14 -14 -14 -14 -14 -14 -14 -14 -14 -14 -14 -14 -14 -14 -14 -14 -14 -14 -14 -14 -13 -13 -13 -13 -13 -13
-16 -14 -12 -12 -12 -12 -13 -13 -14 -16 -20 -18 -18 -16 -15 -14 -15 -14 -15 -15 -14 -14 -15 -16 -16 -16 -16 -15 -15 -15 -15 -14 -14 -14 -14 -14 -14 -14 -14 -14 -14 -14 -14 -14 -14 -14 -14 -14 -14 -13 -13 -13 -13 -13
-13 -12 -14 -13 -13 -12 -15 -16 -18 -19 -19 -14 -15 -18 -15 -16 -15 -15 -15 -15 -14 -14 -15 -16 -16 -16 -16 -16 -16 -16 -16 -15 -15 -15 -15 -15 -14 -14 -14 -14 -14 -14 -14 -14 -14 -14 -14 -13 -13 -13 -13 -13 -13 -14
-13 -13 -13 -14 -14 -14 -14 -15 -14 -15 -15 -15 -18 -19 -17 -17 -16 -16 -16 -15 -15 -14 -14 -15 -15 -15 -15 -16 -16 -16 -16 -16 -16 -15 -15 -15 -15 -15 -14 -14 -14 -14 -14 -14 -13 -13 -13 -13 -13 -13 -13 -13 -14 -14
-13 -13 -13 -15 -18 -18 -15 -15 -15 -16 -16 -16 -17 -17 -17 -17 -16 -16 -16 -15 -15 -14 -14 -14 -14 -15 -15 -15 -16 -16 -16 -16 -16 -16 -16 -16 -15 -15 -15 -15 -14 -14 -14 -14 -13 -13 -13 -13 -13 -13 -14 -14 -14 -14
-13 -13 -14 -14 -15 -15 -15 -15 -16 -16 -16 -17 -17 -17 -17 -17 -16 -16 -16 -15 -15 -15 -15 -15 -15 -15 -15 -15 -15 -16 -16 -16 -16 -16 -16 -16 -15 -15 -15 -15 -14 -14 -14 -14 -13 -13 -13 -13 -13 -14 -14 -14 -14 -13
-14 -14 -14 -18 -15 -15 -15 -15 -15 -15 -15 -15 -16 -16 -16 -16 -16 -16 -16 -16 -15 -15 -15 -15 -16 -16 -17 -17 -16 -16 -16 -16 -16 -16 -16 -16 -16 -15 -15 -14 -14 -14 -14 -13 -13 -13 -13 -14 -14 -14 -14 -14 -13 -13
-14 -14 -14 -15 -15 -14 -14 -14 -15 -15 -15 -16 -16 -16 -16 -16 -16 -16 -16 -16 -16 -16 -15 -15 -16 -16 -17 -17 -17 -17 -17 -16 -16 -16 -16 -16 -16 -15 -14 -14 -14 -14 -13 -13 -13 -13 -14 -14 -14 -14 -13 -13 -13 -13

GFSWCAN_850_dewp_210.txt.gz
Dewpoint
-12 -6 -5 -5 -6 -4 -4 -5 -4 -4 -4 -4 -5 -4 -5 -5 -4 -4 -4 -4 -4 -4 -4 -5 -5 -5 -5 -5 -6 -7 -6 -9 -6 -5 -5 -7 -6 -7 -5 -6 -5 -4 -6 -6 -5 -4 -5 -5 -4 -2 -2 -3 -4 -5
-5 -6 -5 -5 -4 -5 -4 -4 -4 -5 -4 -4 -5 -5 -5 -6 -6 -5 -4 -5 -4 -4 -5 -5 -5 -5 -5 -6 -6 -6 -6 -7 -8 -7 -8 -8 -6 -8 -9 -7 -12 -8 -9 -7 -7 -7 -10 -11 -8 -5 -4 -4 -4 -3
-6 -5 -4 -4 -4 -4 -4 -5 -4 -4 -4 -5 -4 -5 -8 -5 -4 -4 -4 -4 -4 -4 -6 -5 -5 -11 -9 -8 -9 -5 -6 -6 -6 -7 -7 -6 -6 -7 -6 -7 -10 -10 -11 -9 -8 -10 -11 -9 -7 -8 -10 -6 -7 -6
-6 -4 -4 -4 -5 -5 -5 -6 -5 -5 -5 -4 -5 -6 -5 -5 -10 -9 -6 -8 -5 -5 -5 -8 -9 -10 -11 -10 -10 -9 -8 -8 -7 -8 -6 -5 -5 -8 -6 -7 -8 -9 -9 -8 -8 -10 -10 -12 -13 -13 -10 -9 -9 -8
-6 -6 -5 -5 -5 -5 -5 -5 -5 -6 -5 -4 -5 -7 -9 -8 -7 -5 -6 -10 -9 -5 -7 -7 -7 -13 -11 -12 -12 -9 -8 -7 -5 -6 -6 -6 -7 -7 -7 -8 -6 -9 -8 -7 -8 -12 -12 -12 -12 -11 -10 -9 -9 -7
-7 -6 -6 -6 -7 -6 -6 -5 -6 -7 -5 -5 -5 -5 -6 -5 -5 -5 -6 -12 -12 -7 -5 -8 -11 -9 -11 -11 -9 -9 -9 -7 -6 -6 -6 -6 -7 -7 -5 -6 -10 -11 -11 -10 -10 -10 -10 -10 -10 -10 -9 -9 -9 -7
-7 -7 -8 -11 -10 -6 -5 -7 -6 -7 -7 -6 -6 -6 -6 -6 -5 -5 -7 -10 -9 -6 -5 -5 -6 -8 -10 -11 -12 -12 -12 -9 -7 -6 -6 -6 -7 -6 -5 -5 -10 -11 -11 -10 -10 -10 -10 -10 -9 -9 -10 -9 -8 -8
-8 -6 -6 -9 -11 -9 -8 -7 -9 -8 -7 -7 -7 -6 -7 -9 -8 -10 -15 -12 -10 -6 -7 -7 -9 -10 -13 -12 -11 -10 -9 -8 -7 -6 -6 -5 -6 -5 -5 -8 -10 -8 -6 -7 -9 -9 -9 -9 -9 -8 -8 -8 -8 -8
-8 -9 -11 -9 -9 -7 -7 -12 -8 -7 -7 -7 -8 -9 -13 -15 -13 -12 -10 -9 -8 -7 -6 -7 -8 -7 -9 -10 -9 -9 -8 -5 -7 -4 -4 -5 -5 -4 -5 -4 -5 -6 -6 -6 -5 -7 -8 -7 -8 -8 -8 -8 -8 -7
-11 -9 -9 -8 -8 -12 -9 -9 -9 -8 -8 -8 -10 -13 -13 -11 -11 -10 -9 -8 -7 -6 -5 -5 -6 -6 -8 -8 -7 -7 -7 -6 -8 -7 -6 -4 -5 -6 -8 -10 -9 -9 -8 -8 -6 -6 -5 -8 -8 -8 -8 -8 -8 -8
-9 -8 -7 -13 -11 -9 -9 -9 -9 -7 -6 -6 -8 -10 -11 -9 -6 -7 -8 -8 -8 -8 -6 -6 -6 -7 -9 -7 -8 -8 -8 -8 -5 -6 -5 -5 -4 -9 -11 -10 -9 -9 -9 -9 -9 -9 -8 -5 -6 -8 -8 -8 -8 -8
-9 -8 -10 -9 -9 -10 -8 -6 -6 -7 -6 -6 -6 -6 -6 -6 -8 -10 -15 -10 -11 -8 -6 -6 -8 -8 -10 -10 -7 -8 -6 -6 -6 -6 -3 -3 -8 -11 -10 -10 -9 -9 -9 -9 -9 -9 -10 -9 -7 -4 -6 -8 -8 -8
-8 -9 -10 -10 -9 -7 -7 -7 -7 -7 -8 -7 -6 -6 -8 -10 -11 -10 -14 -13 -12 -8 -8 -8 -10 -11 -11 -9 -7 -7 -6 -5 -4 -3 -4 -7 -11 -10 -10 -10 -10 -10 -9 -9 -9 -8 -8 -9 -8 -5 -4 -7 -8 -8
-10 -13 -10 -11 -8 -8 -8 -8 -9 -7 -8 -6 -7 -8 -13 -17 -15 -13 -12 -10 -8 -9 -8 -9 -10 -11 -11 -9 -8 -6 -7 -4 -6 -7 -8 -11 -10 -10 -10 -10 -10 -10 -9 -9 -8 -7 -7 -7 -6 -4 -6 -6 -5 -3
-11 -9 -10 -9 -9 -10 -9 -9 -9 -9 -6 -7 -8 -11 -14 -14 -13 -11 -9 -8 -8 -9 -10 -10 -10 -9 -9 -8 -7 -6 -6 -7 -8 -8 -9 -9 -10 -11 -11 -11 -10 -10 -9 -9 -7 -5 -5 -5 -5 -5 -4 -4 -3 -3
-9 -9 -12 -13 -9 -8 -8 -9 -8 -6 -6 -7 -8 -10 -11 -11 -11 -10 -8 -9 -10 -11 -12 -11 -11 -9 -9 -7 -6 -7 -9 -8 -8 -9 -9 -10 -11 -11 -11 -11 -11 -11 -10 -10 -9 -9 -8 -7 -6 -6 -6 -6 -7 -7
-13 -9 -8 -8 -7 -7 -9 -8 -6 -7 -7 -8 -9 -9 -9 -9 -9 -10 -10 -11 -11 -11 -12 -10 -9 -8 -8 -8 -8 -9 -9 -10 -10 -9 -10 -11 -11 -11 -11 -11 -11 -11 -11 -11 -10 -10 -10 -9 -9 -8 -8 -7 -7 -7
-9 -9 -8 -8 -7 -7 -8 -7 -7 -9 -9 -10 -10 -9 -8 -10 -11 -11 -12 -12 -12 -11 -10 -10 -10 -11 -10 -10 -10 -11 -12 -11 -9 -10 -11 -11 -10 -10 -10 -10 -9 -9 -9 -9 -9 -9 -9 -10 -9 -9 -8 -9 -8 -9
-8 -7 -7 -7 -7 -7 -8 -10 -11 -10 -10 -9 -8 -8 -8 -10 -12 -12 -13 -12 -11 -11 -11 -12 -13 -13 -12 -12 -13 -13 -13 -11 -10 -10 -12 -13 -13 -13 -13 -13 -12 -11 -10 -10 -10 -10 -10 -10 -10 -9 -9 -9 -10 -10
-7 -7 -7 -7 -7 -7 -10 -12 -12 -9 -9 -9 -9 -9 -9 -10 -11 -13 -13 -13 -12 -13 -14 -14 -14 -14 -14 -14 -14 -13 -12 -11 -10 -12 -13 -13 -13 -14 -14 -13 -13 -13 -13 -13 -13 -12 -12 -12 -12 -12 -12 -11 -12 -12
-8 -7 -8 -8 -8 -7 -9 -13 -11 -8 -9 -9 -9 -9 -9 -10 -11 -13 -14 -14 -15 -15 -15 -15 -15 -14 -14 -14 -13 -12 -11 -11 -12 -13 -13 -13 -14 -14 -14 -14 -14 -14 -14 -14 -14 -13 -13 -12 -13 -13 -13 -13 -13 -13
-9 -8 -8 -9 -8 -11 -13 -13 -14 -13 -13 -13 -10 -9 -10 -11 -12 -12 -13 -16 -15 -15 -16 -15 -15 -14 -13 -13 -12 -12 -12 -13 -13 -13 -14 -14 -15 -15 -14 -14 -14 -14 -14 -14 -13 -13 -13 -13 -13 -13 -13 -13 -13 -13
-8 -10 -10 -10 -12 -14 -15 -15 -13 -12 -14 -13 -10 -11 -11 -11 -12 -12 -14 -14 -15 -15 -15 -14 -13 -13 -13 -13 -12 -13 -13 -13 -14 -14 -14 -14 -14 -14 -14 -14 -14 -14 -14 -14 -13 -13 -13 -13 -13 -13 -13 -13 -13 -13
-9 -12 -12 -13 -14 -14 -14 -12 -12 -13 -13 -13 -16 -14 -13 -12 -12 -13 -14 -14 -14 -14 -14 -13 -13 -13 -13 -12 -12 -12 -13 -14 -14 -14 -14 -14 -14 -14 -14 -14 -14 -14 -14 -14 -13 -13 -13 -13 -13 -13 -13 -13 -13 -13
-11 -13 -13 -13 -12 -13 -20 -18 -16 -16 -16 -18 -16 -15 -13 -12 -13 -13 -13 -14 -14 -14 -14 -13 -13 -13 -13 -13 -13 -14 -14 -14 -14 -14 -14 -14 -14 -14 -14 -14 -14 -14 -14 -14 -14 -14 -14 -13 -13 -13 -13 -13 -13 -13
-14 -14 -13 -13 -13 -15 -17 -15 -18 -18 -20 -18 -17 -13 -12 -15 -15 -14 -14 -14 -14 -14 -14 -14 -14 -15 -15 -15 -15 -15 -15 -14 -14 -15 -15 -14 -14 -14 -14 -14 -14 -14 -14 -14 -14 -14 -14 -13 -13 -13 -13 -13 -13 -14
-14 -16 -12 -12 -12 -12 -13 -13 -14 -16 -19 -18 -19 -17 -17 -15 -16 -15 -15 -15 -14 -14 -15 -16 -16 -16 -16 -16 -16 -16 -15 -15 -15 -15 -15 -15 -15 -15 -15 -14 -14 -14 -14 -14 -14 -14 -14 -13 -13 -13 -13 -13 -14 -14
-12 -13 -14 -13 -13 -13 -15 -16 -19 -19 -19 -15 -15 -18 -17 -17 -16 -15 -15 -15 -15 -14 -15 -16 -16 -16 -16 -16 -16 -16 -16 -16 -16 -16 -15 -15 -15 -15 -15 -14 -14 -14 -14 -14 -13 -13 -13 -13 -13 -13 -13 -14 -14 -14
-13 -13 -13 -14 -14 -14 -14 -15 -15 -15 -15 -15 -17 -18 -18 -17 -16 -16 -16 -15 -15 -14 -14 -14 -14 -15 -15 -15 -15 -16 -16 -16 -16 -16 -16 -16 -15 -15 -15 -15 -14 -14 -14 -14 -13 -13 -13 -13 -13 -13 -14 -14 -14 -14
-13 -13 -13 -15 -17 -18 -15 -15 -15 -16 -16 -16 -16 -17 -17 -17 -17 -16 -15 -15 -15 -14 -14 -14 -15 -15 -15 -15 -15 -16 -16 -16 -16 -16 -16 -16 -16 -16 -15 -15 -14 -14 -14 -14 -13 -13 -13 -13 -14 -14 -14 -14 -14 -13
-13 -13 -14 -15 -15 -15 -15 -15 -16 -16 -16 -17 -17 -17 -17 -17 -16 -16 -15 -15 -15 -15 -15 -15 -15 -15 -16 -16 -16 -16 -16 -16 -16 -16 -16 -16 -16 -16 -15 -15 -14 -14 -14 -14 -13 -13 -13 -14 -14 -14 -14 -13 -13 -13
-14 -14 -14 -18 -15 -15 -15 -15 -15 -15 -15 -16 -16 -16 -16 -16 -16 -16 -16 -16 -15 -15 -15 -15 -15 -16 -16 -17 -17 -17 -17 -17 -17 -16 -16 -16 -16 -16 -15 -14 -14 -14 -14 -14 -13 -13 -14 -14 -14 -14 -13 -13 -13 -13
-15 -15 -15 -15 -15 -15 -15 -15 -15 -16 -16 -16 -16 -16 -16 -16 -16 -16 -16 -16 -16 -16 -16 -16 -16 -16 -16 -17 -17 -17 -17 -17 -17 -17 -16 -16 -16 -15 -14 -14 -14 -13 -13 -13 -13 -13 -14 -14 -14 -13 -13 -13 -13 -13

GFSWCAN_850_dewp_213.txt.gz
Dewpoint
-9 -7 -9 -5 -5 -5 -4 -4 -4 -4 -4 -4 -4 -5 -5 -4 -4 -5 -4 -4 -4 -4 -5 -5 -5 -5 -5 -5 -5 -7 -6 -7 -6 -5 -5 -8 -8 -9 -9 -11 -8 -8 -6 -5 -7 -8 -6 -6 -13 -9 -9 -14 -7 -6
-6 -5 -6 -5 -5 -4 -4 -4 -4 -4 -4 -4 -6 -4 -5 -5 -6 -4 -5 -6 -5 -4 -4 -5 -8 -7 -7 -8 -5 -5 -6 -7 -8 -6 -8 -9 -8 -10 -9 -7 -12 -9 -10 -11 -10 -12 -14 -15 -15 -15 -11 -6 -6 -7
-5 -5 -5 -5 -4 -6 -5 -6 -6 -5 -5 -5 -5 -3 -4 -6 -7 -5 -6 -11 -4 -5 -6 -7 -10 -13 -11 -9 -9 -5 -6 -6 -6 -7 -6 -6 -6 -8 -6 -8 -8 -10 -12 -9 -9 -11 -12 -12 -12 -12 -12 -8 -9 -12
-6 -4 -5 -6 -6 -6 -6 -6 -5 -5 -5 -5 -6 -4 -5 -6 -6 -6 -5 -6 -4 -5 -5 -9 -9 -11 -12 -11 -9 -9 -9 -8 -6 -6 -6 -6 -6 -7 -7 -9 -9 -10 -11 -10 -10 -11 -12 -12 -12 -12 -12 -12 -12 -11
-8 -6 -6 -6 -6 -6 -7 -7 -6 -5 -6 -6 -6 -6 -6 -6 -5 -6 -7 -13 -11 -5 -8 -8 -8 -16 -14 -13 -12 -10 -8 -7 -5 -6 -5 -6 -8 -8 -8 -8 -7 -10 -10 -9 -8 -12 -12 -12 -12 -12 -12 -12 -12 -11
-7 -7 -7 -7 -7 -10 -11 -8 -7 -8 -6 -7 -7 -7 -7 -6 -6 -5 -7 -10 -11 -8 -6 -9 -11 -11 -11 -10 -10 -12 -10 -8 -6 -6 -6 -7 -8 -8 -5 -7 -11 -12 -12 -11 -11 -10 -10 -10 -10 -10 -10 -10 -10 -10
-5 -7 -8 -7 -6 -9 -11 -10 -8 -7 -12 -7 -8 -8 -11 -10 -6 -5 -6 -7 -6 -5 -5 -5 -7 -8 -11 -13 -13 -12 -13 -10 -7 -7 -6 -7 -7 -5 -5 -6 -10 -7 -5 -5 -6 -5 -5 -5 -5 -6 -7 -8 -9 -9
-8 -7 -8 -9 -11 -10 -9 -8 -8 -10 -8 -8 -9 -10 -11 -12 -16 -12 -12 -9 -9 -7 -7 -8 -9 -11 -13 -11 -10 -12 -10 -10 -9 -8 -6 -6 -5 -5 -5 -8 -8 -8 -9 -8 -8 -8 -7 -7 -7 -6 -8 -8 -8 -8
-8 -8 -11 -9 -9 -8 -10 -13 -10 -9 -9 -10 -11 -16 -21 -18 -13 -12 -11 -10 -8 -6 -6 -7 -8 -7 -9 -9 -11 -11 -9 -6 -8 -5 -5 -6 -5 -4 -8 -9 -10 -11 -10 -10 -10 -9 -9 -8 -6 -7 -7 -7 -8 -8
-8 -11 -10 -9 -8 -13 -10 -8 -10 -8 -8 -8 -11 -12 -15 -12 -11 -10 -9 -8 -7 -6 -6 -7 -7 -7 -7 -10 -9 -8 -9 -7 -7 -7 -5 -4 -4 -8 -11 -11 -11 -10 -10 -10 -9 -10 -10 -9 -9 -8 -8 -6 -7 -8
-9 -10 -9 -8 -8 -9 -10 -8 -6 -7 -8 -8 -8 -10 -11 -9 -7 -7 -8 -9 -9 -9 -7 -6 -6 -8 -11 -9 -10 -10 -9 -8 -6 -6 -4 -4 -7 -11 -11 -11 -11 -10 -10 -10 -10 -10 -9 -9 -9 -9 -9 -8 -5 -7
-10 -8 -8 -9 -10 -11 -8 -7 -7 -7 -6 -6 -7 -7 -6 -6 -8 -10 -16 -12 -13 -11 -8 -8 -9 -10 -11 -10 -8 -9 -8 -7 -6 -5 -4 -5 -11 -11 -10 -11 -11 -10 -10 -10 -10 -9 -9 -9 -9 -9 -9 -8 -4 -6
-9 -10 -10 -13 -10 -10 -9 -8 -9 -9 -8 -9 -7 -7 -7 -10 -13 -11 -15 -14 -13 -8 -8 -9 -10 -11 -11 -11 -9 -8 -7 -7 -6 -6 -6 -9 -11 -10 -11 -11 -11 -11 -11 -10 -10 -8 -8 -9 -9 -8 -9 -6 -5 -7
-8 -10 -13 -10 -10 -10 -10 -10 -10 -9 -9 -6 -7 -10 -12 -17 -16 -14 -14 -12 -9 -8 -9 -10 -11 -11 -11 -10 -9 -8 -8 -6 -8 -9 -9 -10 -10 -10 -11 -11 -11 -11 -11 -11 -10 -8 -8 -8 -7 -7 -5 -4 -5 -4
-11 -11 -10 -11 -14 -10 -8 -8 -10 -10 -6 -6 -8 -11 -15 -13 -14 -13 -12 -10 -9 -9 -10 -11 -11 -10 -11 -9 -8 -7 -7 -8 -8 -9 -9 -10 -11 -11 -12 -12 -12 -12 -11 -11 -10 -10 -9 -8 -7 -6 -6 -6 -6 -6
-9 -12 -16 -12 -9 -8 -6 -8 -9 -7 -7 -7 -8 -10 -11 -12 -12 -10 -9 -10 -10 -11 -11 -11 -13 -12 -9 -8 -7 -8 -9 -8 -9 -10 -9 -11 -12 -12 -12 -12 -12 -11 -11 -11 -11 -11 -11 -11 -10 -10 -8 -8 -9 -9
-13 -12 -11 -10 -8 -7 -7 -7 -7 -8 -7 -8 -9 -10 -10 -9 -9 -10 -11 -11 -12 -12 -14 -12 -11 -9 -9 -9 -9 -9 -10 -11 -11 -11 -11 -12 -12 -12 -12 -11 -11 -11 -11 -10 -10 -10 -10 -10 -10 -10 -9 -9 -9 -9
-9 -9 -9 -8 -7 -7 -8 -8 -8 -8 -9 -9 -10 -11 -8 -10 -11 -12 -12 -13 -13 -12 -11 -10 -11 -12 -11 -11 -11 -12 -13 -13 -11 -11 -12 -12 -13 -13 -13 -13 -13 -11 -10 -10 -10 -10 -10 -10 -10 -10 -10 -9 -9 -9
-8 -8 -7 -7 -7 -8 -7 -9 -10 -11 -12 -10 -9 -8 -9 -10 -12 -13 -13 -12 -12 -12 -12 -12 -14 -13 -13 -13 -13 -14 -13 -13 -12 -11 -12 -13 -13 -13 -14 -14 -14 -14 -13 -12 -12 -11 -11 -11 -11 -10 -10 -10 -11 -11
-8 -9 -9 -8 -8 -8 -8 -10 -11 -11 -10 -9 -9 -9 -9 -10 -11 -13 -13 -12 -12 -13 -15 -15 -14 -15 -15 -15 -14 -14 -13 -12 -11 -12 -13 -14 -14 -14 -14 -14 -14 -14 -14 -14 -14 -14 -14 -13 -13 -13 -13 -13 -12 -12
-12 -12 -9 -8 -8 -9 -7 -11 -13 -9 -9 -9 -9 -9 -9 -10 -11 -12 -13 -15 -15 -15 -15 -15 -15 -14 -14 -14 -13 -13 -12 -12 -13 -13 -13 -13 -14 -14 -14 -14 -14 -14 -14 -14 -14 -13 -13 -13 -13 -13 -13 -13 -12 -12
-13 -9 -9 -10 -9 -9 -11 -12 -13 -13 -13 -13 -11 -9 -10 -11 -12 -12 -13 -16 -15 -15 -15 -15 -15 -14 -14 -13 -13 -12 -13 -13 -13 -13 -14 -14 -14 -14 -14 -14 -14 -14 -14 -14 -13 -13 -13 -13 -13 -13 -13 -13 -13 -13
-10 -9 -10 -10 -9 -13 -15 -15 -14 -12 -13 -13 -11 -12 -12 -11 -12 -12 -14 -14 -15 -15 -14 -14 -14 -14 -13 -13 -13 -12 -12 -12 -13 -14 -14 -14 -14 -14 -14 -14 -14 -14 -14 -14 -14 -13 -13 -13 -13 -13 -13 -13 -13 -13
-11 -10 -11 -12 -13 -14 -14 -13 -12 -12 -13 -14 -17 -15 -15 -12 -12 -13 -14 -14 -14 -14 -14 -13 -13 -13 -13 -13 -12 -13 -13 -14 -14 -14 -14 -14 -14 -14 -14 -14 -14 -14 -14 -14 -14 -14 -13 -13 -13 -13 -13 -13 -13 -14
-10 -12 -13 -14 -13 -13 -17 -17 -15 -15 -16 -20 -17 -17 -13 -12 -16 -16 -14 -14 -14 -14 -14 -14 -13 -13 -13 -13 -14 -15 -15 -15 -15 -15 -15 -14 -14 -14 -14 -14 -14 -14 -14 -14 -14 -14 -13 -13 -13 -13 -13 -14 -14 -14
-13 -12 -14 -13 -14 -15 -16 -15 -18 -18 -20 -18 -19 -14 -13 -16 -16 -16 -15 -14 -14 -14 -14 -14 -14 -15 -15 -15 -15 -15 -15 -15 -15 -15 -15 -15 -15 -15 -15 -15 -14 -14 -14 -14 -14 -14 -13 -13 -13 -13 -13 -14 -14 -13
-14 -15 -13 -13 -12 -13 -13 -14 -14 -16 -19 -18 -19 -18 -18 -15 -17 -16 -15 -15 -14 -14 -14 -15 -16 -16 -16 -16 -16 -16 -16 -16 -16 -16 -15 -15 -15 -15 -15 -15 -15 -14 -14 -14 -14 -14 -13 -13 -13 -13 -14 -14 -14 -14
-12 -13 -15 -13 -13 -13 -15 -16 -19 -18 -18 -15 -15 -18 -18 -17 -17 -15 -15 -15 -14 -14 -14 -16 -16 -16 -16 -16 -16 -16 -16 -16 -16 -16 -16 -16 -15 -15 -15 -15 -15 -15 -14 -14 -13 -13 -13 -13 -13 -14 -14 -14 -14 -14
-12 -13 -13 -14 -14 -14 -14 -14 -15 -15 -15 -15 -16 -18 -17 -17 -16 -16 -15 -15 -14 -14 -14 -14 -14 -15 -15 -15 -15 -15 -16 -16 -16 -16 -16 -16 -16 -16 -15 -15 -14 -14 -14 -14 -13 -13 -13 -13 -14 -14 -14 -14 -13 -13
-13 -13 -13 -14 -16 -17 -15 -15 -15 -15 -15 -15 -15 -16 -17 -17 -17 -16 -16 -15 -15 -14 -14 -14 -14 -15 -15 -16 -16 -16 -16 -16 -16 -16 -16 -16 -16 -16 -16 -15 -15 -14 -14 -14 -13 -13 -13 -14 -14 -14 -14 -13 -13 -13
-14 -13 -14 -14 -15 -15 -15 -16 -16 -16 -16 -16 -16 -16 -17 -17 -17 -16 -16 -15 -15 -15 -14 -14 -15 -15 -16 -16 -17 -17 -17 -17 -17 -17 -17 -16 -16 -16 -16 -15 -14 -14 -14 -14 -13 -13 -14 -14 -14 -14 -14 -13 -13 -13
-14 -14 -14 -18 -15 -15 -15 -15 -15 -15 -16 -16 -16 -17 -17 -16 -16 -16 -16 -15 -15 -15 -15 -15 -15 -15 -16 -16 -17 -17 -17 -17 -17 -17 -17 -17 -17 -16 -15 -14 -14 -14 -14 -13 -13 -13 -14 -14 -14 -14 -13 -13 -13 -13
-15 -15 -15 -15 -16 -15 -15 -15 -15 -16 -16 -16 -16 -16 -16 -16 -16 -16 -16 -16 -16 -16 -16 -16 -16 -16 -16 -17 -17 -17 -17 -17 -17 -17 -17 -17 -16 -16 -15 -14 -14 -13 -13 -13 -13 -14 -14 -14 -14 -13 -13 -13 -13 -14

GFSWCAN_850_dewp_219.txt.gz
Dewpoint
-19 -14 -16 -15 -8 -7 -6 -4 -6 -7 -6 -5 -5 -5 -11 -5 -5 -4 -5 -5 -5 -4 -6 -7 -8 -8 -8 -9 -8 -11 -9 -9 -7 -8 -11 -12 -12 -14 -13 -15 -14 -12 -12 -12 -14 -12 -9 -19 -17 -12 -13 -15 -15 -14
-14 -15 -14 -7 -7 -5 -6 -6 -5 -5 -6 -6 -5 -6 -5 -12 -6 -5 -4 -4 -4 -5 -6 -6 -6 -6 -6 -7 -7 -8 -9 -11 -10 -8 -10 -10 -8 -10 -9 -6 -15 -10 -11 -9 -11 -11 -16 -16 -15 -15 -14 -13 -13 -13
-17 -14 -5 -4 -6 -6 -6 -6 -7 -7 -7 -6 -5 -9 -9 -7 -8 -8 -6 -5 -5 -5 -7 -9 -10 -10 -9 -9 -7 -7 -8 -10 -10 -10 -6 -7 -7 -11 -8 -11 -12 -13 -14 -9 -7 -10 -12 -14 -14 -13 -13 -13 -12 -12
-9 -9 -7 -5 -5 -6 -7 -6 -6 -10 -7 -9 -8 -8 -14 -8 -9 -7 -6 -5 -5 -5 -5 -9 -10 -11 -10 -10 -9 -8 -8 -8 -7 -7 -6 -6 -6 -11 -10 -11 -11 -12 -12 -8 -8 -11 -11 -12 -12 -12 -10 -9 -9 -8
-8 -8 -8 -8 -7 -7 -6 -6 -7 -9 -7 -8 -8 -13 -11 -9 -8 -8 -10 -9 -4 -5 -7 -9 -10 -9 -12 -9 -10 -10 -8 -7 -8 -7 -6 -6 -9 -8 -7 -8 -7 -8 -6 -6 -6 -9 -9 -9 -10 -10 -9 -8 -7 -6
-6 -5 -5 -5 -7 -8 -9 -10 -7 -8 -9 -12 -11 -10 -11 -12 -9 -7 -5 -8 -9 -7 -6 -7 -9 -9 -9 -11 -14 -11 -10 -9 -8 -7 -9 -10 -9 -7 -5 -9 -10 -8 -11 -12 -11 -12 -12 -12 -12 -12 -10 -7 -9 -10
-9 -7 -6 -8 -9 -12 -9 -9 -10 -12 -9 -10 -12 -13 -13 -13 -7 -5 -6 -6 -6 -6 -5 -8 -9 -9 -13 -13 -11 -13 -15 -14 -12 -9 -7 -7 -8 -6 -5 -5 -10 -12 -12 -12 -12 -12 -11 -12 -12 -12 -12 -12 -12 -11
-13 -9 -9 -8 -11 -11 -9 -9 -11 -10 -7 -11 -19 -24 -24 -24 -19 -9 -6 -6 -6 -8 -8 -7 -8 -10 -9 -10 -14 -15 -14 -13 -11 -10 -8 -6 -5 -5 -6 -10 -11 -11 -11 -12 -12 -11 -11 -11 -12 -12 -12 -12 -11 -11
-12 -9 -9 -11 -11 -9 -8 -10 -8 -11 -11 -14 -17 -18 -19 -16 -7 -7 -8 -10 -10 -8 -7 -7 -8 -9 -7 -12 -14 -13 -13 -9 -10 -6 -6 -5 -9 -8 -9 -9 -10 -10 -10 -10 -11 -11 -12 -12 -12 -12 -12 -12 -12 -12
-8 -7 -7 -11 -9 -9 -11 -13 -8 -13 -13 -17 -16 -15 -15 -14 -10 -9 -7 -6 -7 -6 -7 -7 -8 -8 -10 -12 -12 -12 -9 -9 -7 -8 -4 -6 -8 -12 -11 -10 -10 -11 -11 -11 -11 -11 -11 -10 -10 -10 -10 -10 -10 -11
-8 -8 -10 -10 -11 -11 -11 -8 -11 -17 -15 -13 -11 -10 -11 -8 -8 -8 -8 -8 -8 -8 -7 -7 -6 -9 -12 -9 -10 -10 -8 -8 -6 -5 -4 -10 -11 -11 -10 -10 -11 -11 -12 -11 -11 -11 -10 -9 -8 -7 -7 -9 -9 -10
-9 -9 -9 -10 -11 -12 -10 -9 -12 -12 -10 -10 -9 -7 -8 -8 -8 -9 -9 -10 -9 -8 -8 -8 -9 -9 -9 -9 -8 -9 -8 -7 -6 -7 -10 -11 -11 -11 -10 -11 -11 -12 -12 -12 -11 -11 -10 -10 -8 -8 -9 -9 -9 -8
-10 -8 -9 -11 -10 -10 -11 -15 -12 -9 -10 -11 -7 -8 -9 -9 -9 -10 -10 -12 -10 -10 -8 -8 -9 -10 -9 -9 -9 -8 -8 -6 -7 -9 -9 -10 -11 -11 -11 -12 -12 -12 -13 -12 -12 -11 -11 -11 -10 -9 -9 -9 -8 -8
-8 -9 -11 -10 -11 -15 -14 -10 -9 -10 -10 -8 -8 -9 -8 -8 -9 -11 -12 -11 -9 -9 -8 -9 -10 -10 -9 -10 -10 -8 -10 -7 -9 -10 -10 -11 -10 -11 -12 -12 -13 -13 -13 -12 -12 -11 -11 -11 -11 -11 -10 -10 -10 -9
-8 -11 -11 -15 -16 -15 -11 -9 -8 -10 -8 -7 -8 -8 -8 -10 -11 -11 -11 -9 -9 -9 -10 -12 -11 -11 -11 -10 -9 -9 -7 -9 -10 -10 -11 -10 -11 -12 -13 -13 -13 -13 -13 -13 -12 -12 -11 -11 -11 -11 -11 -10 -10 -10
-11 -14 -14 -13 -12 -10 -9 -7 -9 -9 -8 -8 -8 -8 -9 -9 -10 -9 -9 -10 -11 -11 -11 -11 -12 -11 -11 -9 -8 -9 -9 -10 -10 -11 -11 -11 -12 -13 -14 -14 -13 -12 -12 -12 -12 -12 -12 -12 -11 -11 -11 -10 -10 -10
-14 -13 -11 -11 -9 -11 -12 -9 -8 -8 -8 -8 -8 -9 -9 -9 -9 -9 -10 -11 -12 -11 -12 -12 -11 -10 -11 -9 -11 -12 -11 -11 -12 -11 -11 -12 -13 -14 -14 -14 -14 -13 -13 -12 -12 -12 -11 -11 -11 -11 -12 -11 -10 -10
-13 -12 -10 -10 -12 -12 -12 -9 -9 -9 -8 -8 -9 -8 -10 -9 -9 -10 -12 -12 -12 -11 -11 -11 -11 -12 -11 -11 -11 -13 -12 -12 -12 -12 -11 -12 -14 -14 -14 -14 -14 -14 -13 -13 -13 -13 -13 -13 -12 -12 -12 -11 -11 -11
-14 -11 -12 -13 -13 -11 -9 -8 -9 -9 -10 -11 -12 -11 -9 -9 -10 -11 -13 -12 -12 -12 -12 -12 -13 -13 -13 -13 -13 -13 -13 -13 -13 -12 -12 -13 -14 -14 -14 -14 -14 -14 -14 -14 -13 -13 -13 -13 -13 -12 -12 -12 -12 -12
-13 -10 -12 -14 -11 -11 -9 -9 -10 -10 -10 -10 -11 -10 -10 -9 -10 -11 -13 -12 -12 -13 -13 -14 -14 -14 -14 -14 -14 -14 -14 -13 -13 -12 -12 -13 -14 -14 -14 -14 -14 -14 -14 -14 -13 -13 -13 -13 -13 -13 -13 -13 -13 -13
-12 -11 -12 -12 -10 -11 -10 -9 -10 -12 -11 -11 -10 -10 -10 -10 -10 -11 -12 -15 -14 -14 -14 -14 -14 -14 -14 -14 -14 -13 -13 -13 -13 -14 -14 -14 -14 -15 -15 -14 -14 -14 -14 -14 -14 -14 -14 -14 -13 -13 -13 -13 -13 -14
-11 -11 -11 -11 -10 -10 -9 -10 -10 -12 -14 -13 -13 -11 -10 -10 -11 -12 -12 -13 -13 -13 -14 -14 -14 -14 -14 -13 -13 -13 -13 -13 -14 -14 -14 -14 -14 -14 -15 -15 -14 -14 -15 -14 -14 -14 -13 -13 -13 -14 -14 -14 -14 -14
-12 -12 -11 -10 -9 -10 -12 -13 -14 -14 -11 -12 -13 -11 -11 -11 -12 -12 -12 -13 -13 -14 -14 -14 -14 -14 -14 -13 -13 -13 -13 -14 -15 -15 -14 -14 -14 -14 -14 -14 -14 -14 -14 -14 -14 -14 -14 -14 -14 -14 -14 -14 -14 -14
-12 -13 -10 -10 -11 -12 -14 -14 -14 -13 -13 -12 -12 -11 -12 -12 -12 -12 -12 -12 -13 -14 -13 -13 -13 -13 -13 -13 -13 -14 -15 -15 -15 -15 -15 -15 -15 -15 -14 -14 -14 -14 -14 -14 -14 -14 -14 -14 -14 -14 -14 -14 -14 -14
-11 -12 -11 -13 -13 -14 -13 -13 -14 -13 -12 -14 -14 -12 -13 -13 -12 -13 -13 -13 -14 -14 -13 -13 -13 -13 -13 -13 -14 -15 -15 -15 -15 -15 -15 -15 -15 -15 -15 -15 -14 -14 -14 -14 -14 -14 -14 -14 -14 -14 -14 -14 -14 -14
-12 -13 -13 -14 -14 -13 -13 -12 -13 -13 -14 -13 -14 -14 -14 -13 -13 -12 -13 -14 -14 -14 -13 -13 -13 -13 -13 -15 -16 -16 -16 -16 -16 -16 -15 -15 -16 -16 -15 -15 -15 -14 -14 -14 -14 -14 -14 -14 -14 -14 -14 -13 -13 -14
-12 -12 -12 -13 -13 -13 -13 -14 -14 -14 -14 -14 -13 -14 -14 -13 -12 -14 -15 -15 -14 -14 -13 -13 -13 -15 -16 -16 -16 -16 -16 -16 -16 -16 -16 -16 -16 -16 -15 -15 -15 -15 -14 -14 -14 -14 -14 -14 -14 -14 -14 -14 -14 -14
-10 -12 -13 -13 -13 -13 -13 -14 -14 -14 -14 -15 -15 -14 -14 -13 -13 -15 -15 -15 -14 -14 -14 -13 -13 -15 -16 -15 -15 -15 -16 -16 -16 -16 -16 -16 -16 -16 -15 -15 -15 -15 -15 -14 -14 -14 -14 -14 -14 -14 -13 -13 -14 -14
-12 -12 -13 -14 -14 -14 -14 -13 -13 -14 -14 -15 -14 -14 -15 -16 -16 -16 -16 -15 -14 -14 -14 -14 -13 -13 -14 -14 -15 -15 -16 -16 -16 -16 -16 -16 -16 -16 -16 -15 -15 -15 -14 -14 -14 -14 -14 -14 -14 -14 -13 -13 -14 -14
-13 -13 -13 -14 -14 -13 -13 -13 -14 -14 -14 -14 -14 -14 -15 -15 -14 -15 -16 -15 -15 -14 -14 -14 -14 -13 -13 -14 -15 -16 -16 -16 -16 -17 -17 -17 -17 -16 -16 -15 -15 -15 -14 -14 -14 -14 -14 -14 -14 -14 -14 -14 -14 -13
-13 -13 -14 -14 -14 -14 -14 -14 -14 -15 -15 -15 -15 -16 -16 -16 -16 -17 -16 -16 -15 -15 -15 -14 -14 -14 -14 -14 -15 -16 -17 -17 -17 -17 -17 -17 -17 -16 -16 -15 -15 -14 -14 -14 -14 -14 -14 -14 -14 -14 -14 -13 -13 -13
-14 -14 -14 -15 -15 -15 -15 -15 -15 -16 -16 -16 -16 -16 -16 -16 -16 -16 -16 -16 -15 -15 -15 -15 -15 -15 -14 -15 -15 -16 -16 -17 -17 -17 -17 -17 -17 -17 -16 -15 -14 -14 -13 -13 -13 -14 -14 -14 -14 -14 -14 -14 -14 -13
-16 -15 -15 -15 -16 -16 -16 -16 -16 -16 -16 -16 -16 -17 -16 -16 -16 -16 -15 -16 -15 -15 -15 -15 -15 -15 -15 -15 -16 -17 -17 -17 -17 -17 -17 -17 -17 -16 -15 -15 -14 -14 -14 -13 -14 -14 -14 -14 -14 -14 -14 -14 -14 -14

GFSWCAN_850_dewp_222.txt.gz
Dewpoint
-22 -22 -23 -21 -17 -12 -8 -7 -6 -5 -5 -6 -7 -5 -7 -5 -11 -7 -6 -5 -4 -4 -5 -7 -8 -8 -8 -8 -7 -8 -8 -9 -7 -6 -8 -10 -10 -11 -10 -10 -9 -9 -10 -10 -11 -10 -9 -17 -15 -12 -14 -15 -14 -13
-21 -22 -19 -18 -13 -8 -6 -5 -6 -8 -8 -9 -8 -8 -8 -7 -7 -6 -7 -7 -5 -4 -5 -7 -13 -10 -7 -9 -6 -7 -8 -8 -9 -7 -7 -7 -6 -8 -9 -7 -13 -10 -12 -9 -8 -9 -13 -12 -12 -13 -13 -13 -13 -12
-19 -15 -15 -12 -8 -5 -5 -7 -6 -6 -8 -11 -9 -9 -6 -11 -7 -8 -7 -7 -6 -4 -7 -9 -10 -10 -11 -10 -9 -7 -7 -8 -9 -9 -6 -5 -7 -9 -7 -8 -9 -11 -11 -8 -6 -10 -11 -11 -11 -11 -11 -10 -10 -10
-13 -12 -13 -10 -6 -6 -7 -7 -6 -6 -11 -9 -8 -7 -10 -6 -6 -7 -7 -9 -7 -5 -5 -8 -10 -13 -11 -11 -10 -10 -9 -9 -8 -8 -7 -5 -6 -9 -8 -8 -6 -7 -7 -6 -6 -8 -9 -11 -11 -11 -11 -11 -11 -11
-14 -13 -10 -7 -6 -6 -8 -9 -10 -7 -9 -12 -14 -12 -10 -7 -7 -8 -11 -10 -6 -5 -6 -7 -12 -10 -11 -9 -9 -11 -9 -8 -8 -7 -7 -7 -9 -8 -9 -8 -5 -7 -7 -7 -8 -10 -11 -12 -12 -12 -12 -12 -12 -11
-16 -14 -8 -5 -5 -8 -11 -6 -8 -10 -13 -12 -12 -13 -13 -8 -6 -7 -7 -6 -8 -7 -6 -7 -9 -13 -9 -12 -11 -10 -11 -12 -11 -9 -8 -8 -9 -7 -5 -6 -8 -11 -11 -11 -11 -11 -12 -11 -12 -12 -12 -12 -13 -13
-19 -16 -10 -8 -9 -9 -10 -8 -10 -12 -12 -13 -20 -21 -18 -16 -8 -5 -8 -6 -6 -7 -6 -7 -8 -9 -10 -10 -11 -14 -15 -14 -14 -13 -10 -9 -8 -5 -5 -8 -10 -10 -10 -11 -12 -12 -12 -12 -11 -12 -12 -12 -12 -12
-18 -14 -10 -9 -9 -11 -9 -8 -10 -13 -17 -19 -19 -20 -18 -18 -14 -6 -5 -6 -6 -7 -9 -8 -8 -11 -10 -10 -12 -14 -13 -13 -12 -11 -7 -6 -6 -11 -8 -10 -10 -10 -10 -12 -11 -11 -11 -12 -12 -12 -11 -11 -11 -12
-15 -12 -7 -9 -10 -11 -9 -10 -13 -16 -17 -21 -23 -21 -17 -15 -6 -7 -10 -10 -9 -9 -7 -7 -8 -8 -11 -11 -13 -13 -12 -9 -11 -6 -5 -6 -8 -8 -9 -9 -10 -10 -11 -11 -11 -12 -12 -11 -10 -10 -9 -8 -9 -10
-10 -6 -7 -9 -11 -11 -12 -13 -10 -13 -21 -19 -16 -17 -10 -13 -10 -8 -7 -7 -8 -7 -7 -7 -10 -9 -11 -11 -11 -11 -11 -8 -6 -6 -5 -7 -8 -11 -11 -10 -11 -11 -12 -12 -12 -12 -12 -11 -10 -10 -8 -9 -8 -8
-11 -8 -9 -10 -11 -12 -13 -8 -9 -16 -17 -12 -11 -10 -9 -9 -8 -9 -8 -9 -10 -8 -7 -8 -10 -8 -10 -10 -9 -10 -8 -8 -7 -6 -7 -8 -9 -11 -11 -11 -12 -12 -12 -12 -12 -12 -11 -11 -11 -10 -9 -8 -8 -9
-11 -10 -10 -10 -11 -11 -9 -9 -15 -15 -10 -9 -8 -7 -9 -9 -9 -9 -12 -10 -10 -10 -9 -7 -8 -8 -9 -10 -8 -10 -8 -8 -6 -7 -10 -9 -10 -11 -11 -12 -13 -12 -13 -13 -12 -12 -11 -11 -11 -11 -11 -10 -9 -8
-12 -9 -8 -9 -10 -10 -13 -17 -12 -11 -12 -13 -7 -8 -10 -9 -12 -12 -12 -12 -10 -8 -9 -8 -9 -11 -10 -9 -9 -9 -9 -6 -8 -9 -7 -9 -11 -11 -12 -13 -14 -12 -12 -12 -12 -12 -12 -12 -12 -12 -11 -11 -10 -10
-9 -8 -10 -11 -12 -16 -17 -11 -12 -12 -11 -8 -9 -12 -11 -11 -10 -10 -10 -9 -9 -10 -9 -11 -12 -10 -10 -10 -10 -9 -9 -7 -10 -10 -9 -11 -11 -12 -13 -13 -14 -13 -13 -13 -13 -12 -12 -12 -12 -12 -12 -11 -11 -11
-8 -10 -11 -14 -15 -14 -12 -10 -12 -10 -8 -8 -8 -11 -11 -9 -10 -10 -10 -10 -9 -10 -12 -12 -12 -12 -11 -11 -10 -9 -8 -9 -9 -9 -10 -10 -12 -13 -14 -14 -14 -13 -13 -13 -13 -12 -12 -12 -12 -12 -12 -11 -11 -10
-9 -12 -14 -13 -13 -12 -12 -12 -9 -8 -8 -8 -8 -9 -8 -9 -9 -9 -10 -10 -11 -13 -12 -12 -11 -12 -11 -10 -9 -10 -9 -9 -10 -11 -11 -11 -13 -14 -14 -14 -14 -14 -13 -13 -13 -13 -12 -12 -13 -12 -12 -12 -11 -11
-12 -13 -13 -12 -14 -15 -15 -11 -8 -9 -8 -8 -8 -8 -9 -9 -9 -9 -10 -11 -12 -12 -12 -11 -11 -11 -11 -11 -11 -11 -11 -11 -12 -12 -12 -12 -13 -14 -14 -14 -14 -14 -14 -13 -13 -13 -12 -12 -12 -12 -13 -12 -12 -12
-12 -14 -12 -14 -15 -14 -12 -10 -9 -9 -9 -8 -9 -8 -10 -10 -9 -10 -11 -12 -12 -12 -11 -12 -12 -12 -11 -11 -11 -12 -12 -13 -13 -12 -12 -12 -13 -14 -14 -14 -14 -14 -14 -14 -13 -13 -13 -13 -13 -13 -13 -13 -12 -12
-10 -12 -11 -12 -14 -12 -11 -9 -10 -9 -9 -10 -11 -11 -10 -9 -10 -11 -12 -12 -12 -12 -12 -12 -12 -13 -12 -12 -13 -13 -14 -13 -13 -13 -12 -13 -14 -14 -14 -14 -14 -14 -14 -14 -14 -14 -13 -13 -13 -13 -13 -13 -13 -13
-10 -13 -11 -12 -13 -12 -11 -9 -10 -10 -10 -10 -12 -10 -10 -10 -10 -11 -11 -13 -12 -12 -13 -14 -13 -13 -14 -14 -14 -14 -14 -14 -13 -14 -13 -14 -14 -14 -14 -14 -14 -14 -14 -14 -14 -14 -14 -14 -14 -14 -14 -14 -14 -14
-12 -13 -11 -13 -13 -12 -12 -9 -9 -11 -12 -12 -10 -11 -10 -10 -11 -11 -12 -13 -14 -15 -13 -14 -14 -14 -14 -14 -14 -13 -13 -13 -14 -14 -14 -14 -14 -14 -15 -15 -15 -14 -14 -14 -14 -14 -14 -14 -14 -14 -14 -14 -14 -14
-11 -12 -12 -13 -12 -10 -9 -10 -10 -11 -12 -13 -13 -12 -11 -11 -11 -11 -12 -13 -14 -14 -14 -14 -14 -14 -13 -13 -13 -13 -13 -14 -14 -14 -14 -15 -15 -15 -15 -15 -15 -14 -14 -14 -14 -14 -14 -14 -14 -14 -14 -14 -14 -14
-11 -13 -12 -11 -10 -10 -12 -13 -14 -14 -12 -12 -13 -11 -11 -11 -12 -12 -12 -13 -13 -14 -14 -14 -13 -13 -13 -13 -13 -13 -14 -15 -15 -15 -15 -15 -15 -15 -15 -15 -15 -15 -14 -14 -14 -14 -14 -14 -14 -14 -14 -14 -14 -14
-13 -13 -12 -10 -11 -12 -13 -14 -14 -14 -13 -12 -14 -16 -13 -12 -13 -12 -16 -12 -13 -13 -13 -13 -13 -13 -13 -13 -13 -14 -15 -15 -15 -15 -15 -15 -15 -15 -15 -15 -15 -14 -14 -14 -14 -14 -14 -14 -14 -14 -14 -14 -14 -14
-12 -12 -12 -12 -13 -14 -13 -13 -13 -13 -15 -14 -16 -17 -13 -13 -16 -17 -16 -13 -13 -13 -13 -13 -13 -13 -13 -13 -13 -15 -15 -15 -16 -15 -16 -16 -16 -16 -15 -15 -15 -14 -14 -14 -14 -14 -14 -14 -14 -14 -14 -14 -14 -14
-12 -12 -13 -13 -14 -15 -15 -15 -16 -16 -15 -16 -16 -14 -14 -13 -17 -17 -14 -13 -14 -14 -13 -13 -13 -13 -13 -13 -15 -16 -16 -16 -16 -16 -16 -16 -16 -16 -16 -15 -15 -15 -14 -14 -14 -14 -14 -14 -14 -14 -14 -14 -14 -14
-13 -13 -12 -13 -14 -14 -13 -14 -14 -14 -17 -17 -16 -15 -17 -16 -17 -14 -15 -15 -14 -14 -13 -13 -13 -13 -14 -16 -16 -16 -16 -16 -16 -16 -16 -16 -16 -16 -16 -16 -15 -15 -15 -14 -14 -14 -14 -14 -14 -14 -14 -14 -14 -14
-10 -11 -14 -13 -13 -13 -13 -13 -15 -17 -14 -14 -14 -16 -16 -16 -15 -15 -15 -15 -15 -14 -14 -13 -13 -13 -15 -16 -15 -15 -15 -15 -16 -16 -16 -16 -16 -16 -16 -16 -15 -15 -15 -14 -14 -14 -14 -14 -14 -14 -14 -14 -14 -14
-11 -12 -12 -13 -13 -13 -13 -13 -13 -13 -14 -14 -14 -14 -15 -15 -15 -15 -15 -16 -15 -14 -14 -14 -13 -13 -13 -13 -14 -14 -15 -16 -16 -16 -16 -17 -17 -17 -16 -16 -15 -15 -14 -14 -14 -14 -14 -14 -14 -14 -14 -14 -14 -14
-12 -12 -13 -13 -14 -16 -13 -13 -13 -14 -14 -14 -14 -14 -14 -14 -14 -15 -14 -14 -15 -15 -14 -14 -14 -14 -13 -13 -14 -15 -16 -16 -17 -17 -17 -17 -17 -17 -17 -16 -16 -15 -14 -14 -14 -14 -14 -14 -14 -14 -14 -14 -14 -14
-13 -13 -13 -13 -14 -14 -14 -14 -14 -14 -14 -15 -15 -15 -15 -15 -15 -16 -16 -16 -16 -15 -15 -14 -14 -14 -14 -14 -14 -15 -16 -16 -17 -17 -17 -17 -17 -17 -17 -16 -15 -15 -14 -14 -14 -14 -14 -14 -14 -14 -14 -14 -14 -14
-14 -14 -14 -15 -14 -15 -15 -15 -15 -16 -16 -16 -16 -16 -16 -16 -16 -15 -16 -16 -16 -15 -15 -15 -15 -15 -14 -14 -14 -15 -16 -16 -17 -17 -17 -17 -17 -17 -17 -16 -15 -14 -14 -14 -14 -14 -14 -14 -14 -14 -14 -14 -14 -14
-15 -15 -15 -15 -15 -16 -16 -16 -16 -16 -16 -17 -17 -17 -17 -16 -16 -16 -15 -15 -16 -16 -15 -15 -15 -15 -15 -15 -15 -15 -16 -17 -17 -18 -18 -18 -18 -17 -16 -16 -15 -14 -14 -14 -14 -14 -14 -14 -14 -14 -14 -14 -14 -14

GFSWCAN_850_dewp_228.txt.gz
Dewpoint
-24 -23 -22 -23 -17 -16 -12 -10 -10 -7 -8 -11 -12 -6 -6 -6 -10 -8 -8 -6 -5 -6 -6 -6 -7 -7 -6 -5 -7 -9 -7 -9 -8 -8 -7 -8 -8 -8 -8 -10 -9 -9 -7 -8 -9 -8 -9 -10 -9 -7 -9 -11 -11 -11
-23 -21 -24 -17 -15 -11 -9 -9 -10 -10 -12 -13 -6 -6 -11 -8 -6 -6 -4 -7 -7 -6 -9 -9 -10 -11 -9 -10 -8 -6 -8 -7 -7 -6 -7 -8 -8 -8 -9 -8 -12 -7 -7 -6 -6 -7 -11 -13 -13 -14 -12 -13 -13 -13
-21 -24 -18 -14 -12 -10 -9 -11 -13 -15 -12 -12 -13 -5 -6 -6 -7 -6 -5 -6 -7 -6 -8 -10 -12 -11 -10 -10 -11 -8 -9 -9 -8 -9 -9 -9 -10 -8 -9 -9 -10 -11 -9 -8 -11 -14 -14 -13 -13 -14 -14 -13 -13 -13
-23 -18 -14 -13 -11 -8 -9 -13 -14 -13 -13 -13 -13 -6 -7 -9 -6 -6 -8 -10 -7 -6 -5 -9 -11 -13 -10 -11 -12 -10 -10 -9 -9 -8 -8 -12 -9 -9 -8 -9 -8 -10 -9 -11 -11 -14 -13 -14 -14 -13 -13 -12 -13 -13
-18 -14 -14 -11 -9 -7 -11 -13 -15 -14 -13 -14 -16 -19 -17 -12 -8 -7 -10 -6 -6 -6 -7 -8 -14 -14 -11 -11 -15 -19 -18 -16 -13 -10 -11 -10 -9 -9 -8 -8 -10 -10 -9 -10 -11 -12 -10 -12 -12 -12 -12 -11 -11 -11
-14 -15 -14 -12 -10 -11 -12 -15 -14 -12 -14 -16 -18 -18 -22 -21 -18 -13 -7 -6 -6 -7 -7 -10 -12 -13 -13 -16 -19 -19 -18 -16 -15 -13 -11 -12 -8 -7 -7 -8 -11 -11 -11 -11 -11 -11 -12 -12 -13 -12 -11 -11 -11 -10
-16 -17 -16 -14 -13 -12 -13 -13 -12 -14 -16 -15 -19 -23 -20 -19 -19 -14 -9 -7 -7 -8 -7 -9 -11 -11 -10 -15 -14 -16 -16 -15 -13 -13 -12 -8 -10 -8 -9 -11 -11 -12 -12 -12 -12 -12 -13 -13 -12 -12 -11 -12 -11 -11
-18 -16 -15 -14 -12 -12 -14 -13 -14 -14 -13 -19 -23 -20 -18 -16 -14 -10 -10 -8 -9 -7 -8 -12 -11 -10 -11 -13 -13 -15 -15 -11 -9 -7 -7 -8 -13 -13 -12 -12 -12 -12 -12 -13 -13 -13 -13 -12 -12 -12 -12 -12 -12 -11
-18 -16 -13 -10 -11 -12 -13 -14 -14 -12 -19 -24 -23 -19 -17 -14 -13 -11 -8 -8 -7 -8 -10 -8 -10 -10 -12 -12 -12 -15 -13 -7 -9 -6 -8 -13 -10 -10 -11 -11 -12 -12 -13 -13 -14 -14 -13 -13 -12 -12 -12 -13 -12 -12
-16 -14 -11 -11 -11 -12 -13 -13 -12 -18 -23 -26 -20 -18 -13 -12 -11 -10 -9 -9 -9 -8 -7 -9 -8 -9 -11 -10 -12 -11 -11 -13 -11 -6 -10 -11 -10 -12 -12 -13 -13 -14 -14 -14 -14 -14 -14 -13 -13 -13 -13 -13 -13 -12
-13 -12 -11 -11 -11 -12 -11 -13 -18 -22 -25 -20 -15 -12 -12 -11 -10 -11 -13 -12 -11 -11 -8 -8 -9 -9 -11 -11 -10 -9 -12 -13 -11 -7 -10 -9 -11 -12 -12 -13 -13 -14 -13 -13 -13 -13 -13 -13 -13 -13 -13 -13 -13 -12
-12 -12 -10 -9 -11 -12 -13 -19 -22 -20 -15 -13 -9 -8 -11 -11 -11 -15 -19 -15 -16 -14 -9 -9 -10 -12 -13 -9 -9 -11 -13 -13 -9 -8 -12 -10 -11 -12 -13 -14 -14 -14 -14 -13 -13 -13 -13 -13 -13 -13 -13 -13 -13 -12
-13 -10 -9 -11 -12 -15 -19 -20 -18 -16 -17 -11 -11 -11 -13 -11 -14 -18 -15 -15 -14 -10 -9 -11 -13 -13 -12 -9 -12 -15 -13 -11 -11 -13 -10 -11 -12 -13 -14 -14 -14 -14 -14 -13 -13 -13 -13 -13 -13 -13 -13 -13 -12 -12
-10 -8 -10 -12 -16 -19 -19 -19 -18 -18 -18 -13 -13 -17 -17 -15 -16 -14 -14 -13 -10 -9 -10 -13 -12 -12 -11 -11 -13 -13 -12 -11 -14 -13 -11 -12 -13 -13 -14 -14 -14 -14 -14 -14 -14 -14 -13 -13 -13 -13 -13 -13 -13 -13
-10 -10 -12 -15 -17 -18 -19 -18 -17 -16 -14 -10 -11 -16 -15 -10 -9 -9 -9 -10 -10 -11 -13 -13 -13 -12 -13 -16 -13 -13 -15 -13 -11 -11 -12 -12 -13 -14 -14 -14 -14 -15 -14 -14 -14 -14 -14 -13 -14 -14 -13 -13 -13 -13
-10 -12 -14 -16 -16 -17 -18 -19 -16 -11 -10 -9 -9 -12 -9 -10 -9 -10 -10 -10 -11 -13 -11 -11 -14 -18 -15 -14 -13 -13 -13 -13 -12 -13 -13 -13 -14 -14 -14 -14 -14 -14 -14 -14 -14 -14 -14 -13 -14 -14 -13 -13 -13 -13
-13 -14 -15 -14 -15 -17 -19 -16 -13 -11 -10 -9 -10 -10 -10 -10 -10 -10 -10 -10 -11 -13 -13 -12 -15 -14 -14 -16 -14 -12 -13 -12 -13 -13 -13 -14 -14 -14 -14 -14 -14 -14 -14 -14 -14 -14 -14 -13 -13 -14 -14 -13 -13 -13
-12 -12 -13 -15 -16 -18 -18 -14 -13 -12 -10 -10 -10 -10 -9 -10 -10 -10 -10 -11 -12 -12 -12 -14 -12 -15 -14 -13 -12 -13 -13 -14 -13 -13 -13 -14 -14 -14 -14 -14 -14 -14 -14 -14 -14 -14 -14 -14 -14 -14 -14 -14 -14 -14
-9 -10 -12 -16 -16 -18 -16 -12 -12 -10 -10 -10 -10 -11 -11 -10 -10 -10 -11 -11 -12 -12 -12 -12 -16 -15 -13 -13 -13 -14 -14 -14 -14 -14 -14 -14 -15 -15 -14 -14 -14 -14 -14 -14 -14 -14 -14 -14 -14 -14 -14 -14 -14 -14
-7 -9 -12 -15 -17 -18 -14 -11 -11 -10 -11 -11 -12 -11 -11 -11 -11 -11 -11 -12 -13 -12 -13 -15 -14 -14 -14 -13 -14 -14 -14 -14 -14 -15 -15 -15 -15 -15 -15 -14 -14 -14 -14 -14 -14 -14 -14 -14 -14 -14 -14 -14 -14 -14
-8 -10 -12 -14 -16 -14 -13 -11 -10 -10 -12 -13 -12 -13 -12 -11 -11 -11 -12 -12 -13 -14 -14 -15 -14 -13 -13 -13 -13 -13 -13 -14 -15 -15 -15 -15 -15 -15 -15 -15 -14 -14 -14 -15 -14 -14 -14 -14 -14 -14 -14 -14 -14 -14
-9 -10 -12 -13 -13 -12 -12 -11 -12 -12 -12 -12 -13 -13 -12 -12 -12 -12 -13 -13 -13 -14 -15 -14 -13 -13 -13 -13 -13 -13 -14 -15 -15 -15 -15 -15 -15 -15 -15 -15 -15 -15 -15 -14 -14 -14 -14 -14 -14 -14 -14 -14 -14 -14
-9 -10 -13 -13 -13 -13 -13 -13 -15 -14 -14 -14 -14 -13 -12 -12 -12 -13 -13 -13 -13 -13 -14 -14 -13 -13 -13 -13 -13 -13 -15 -15 -15 -15 -16 -16 -16 -15 -15 -15 -15 -15 -15 -15 -14 -14 -14 -14 -14 -14 -14 -14 -14 -14
-10 -12 -14 -14 -12 -12 -13 -14 -15 -14 -14 -13 -15 -18 -14 -13 -13 -13 -18 -13 -13 -13 -14 -13 -13 -13 -13 -13 -13 -13 -15 -15 -16 -15 -15 -16 -16 -16 -16 -15 -15 -15 -15 -15 -14 -14 -14 -14 -14 -14 -14 -14 -14 -14
-12 -13 -13 -12 -12 -13 -14 -14 -14 -14 -17 -16 -18 -20 -13 -14 -19 -22 -18 -14 -14 -14 -14 -13 -13 -13 -13 -13 -13 -13 -15 -16 -16 -16 -16 -16 -16 -16 -16 -15 -15 -15 -15 -14 -14 -14 -14 -14 -14 -14 -14 -14 -14 -14
-13 -13 -13 -14 -13 -16 -16 -17 -19 -17 -17 -18 -19 -15 -14 -15 -18 -17 -16 -14 -15 -14 -14 -13 -13 -13 -13 -13 -13 -13 -15 -16 -16 -16 -16 -16 -16 -16 -16 -16 -15 -15 -15 -14 -14 -14 -14 -14 -14 -14 -14 -14 -14 -14
-13 -13 -12 -13 -14 -14 -14 -14 -14 -14 -17 -18 -18 -17 -19 -16 -18 -16 -14 -15 -15 -15 -15 -14 -13 -13 -13 -13 -13 -13 -13 -14 -15 -16 -16 -16 -16 -17 -17 -16 -16 -15 -15 -15 -14 -14 -14 -14 -14 -14 -14 -14 -14 -14
-9 -11 -14 -13 -13 -13 -13 -14 -15 -16 -15 -14 -14 -16 -17 -17 -15 -15 -15 -15 -14 -14 -15 -15 -14 -13 -13 -13 -14 -13 -13 -13 -14 -15 -16 -16 -17 -17 -17 -16 -16 -15 -15 -14 -14 -14 -14 -14 -14 -14 -14 -14 -14 -14
-10 -11 -11 -12 -13 -13 -13 -13 -13 -13 -13 -14 -14 -15 -14 -14 -14 -14 -14 -13 -13 -14 -14 -15 -14 -14 -13 -13 -13 -13 -13 -13 -14 -14 -16 -17 -17 -17 -17 -17 -16 -15 -15 -14 -14 -14 -14 -14 -14 -14 -14 -14 -14 -14
-12 -12 -12 -13 -14 -16 -13 -13 -13 -13 -13 -13 -13 -13 -13 -13 -13 -14 -14 -14 -14 -14 -15 -14 -14 -14 -14 -14 -14 -13 -13 -14 -14 -15 -16 -17 -17 -17 -17 -17 -17 -16 -15 -14 -14 -14 -14 -14 -14 -14 -14 -14 -14 -14
-12 -13 -13 -13 -13 -13 -13 -13 -13 -13 -14 -14 -14 -14 -14 -14 -15 -15 -15 -15 -15 -16 -15 -15 -15 -15 -15 -14 -14 -14 -14 -14 -14 -15 -16 -17 -17 -17 -17 -17 -17 -16 -15 -14 -14 -14 -14 -14 -14 -14 -14 -14 -14 -14
-14 -14 -14 -15 -14 -14 -14 -15 -15 -15 -16 -16 -16 -16 -16 -16 -16 -16 -16 -15 -15 -15 -16 -16 -16 -15 -15 -15 -15 -14 -14 -14 -14 -15 -16 -17 -17 -17 -17 -17 -16 -16 -15 -14 -14 -14 -14 -14 -14 -14 -14 -14 -14 -14
-15 -15 -15 -15 -15 -15 -15 -15 -16 -16 -16 -17 -17 -17 -17 -17 -17 -16 -16 -16 -15 -16 -16 -16 -16 -16 -15 -15 -15 -15 -15 -14 -15 -16 -17 -17 -18 -17 -16 -17 -17 -16 -15 -14 -14 -14 -14 -14 -14 -14 -14 -14 -14 -14

GFSWCAN_850_dewp_234.txt.gz
Dewpoint
1 -17 -23 -23 -18 -16 -15 -14 -14 -17 -18 -16 -15 -11 -8 -6 -6 -7 -9 -8 -6 -7 -9 -9 -7 -6 -6 -6 -9 -8 -10 -10 -8 -8 -7 -8 -10 -10 -10 -10 -8 -8 -8 -8 -9 -8 -8 -15 -13 -11 -12 -11 -12 -12
-12 -22 -22 -22 -15 -15 -14 -14 -16 -18 -17 -16 -13 -5 -6 -11 -7 -6 -8 -8 -11 -9 -10 -11 -10 -9 -9 -8 -7 -7 -8 -7 -8 -9 -8 -11 -10 -12 -11 -10 -11 -8 -9 -9 -8 -10 -15 -14 -15 -13 -12 -11 -12 -12
-21 -22 -22 -17 -14 -15 -12 -15 -17 -18 -17 -14 -11 -14 -18 -17 -12 -13 -11 -13 -10 -9 -11 -12 -12 -9 -10 -10 -12 -10 -11 -11 -8 -7 -7 -12 -11 -10 -11 -10 -9 -12 -11 -10 -12 -15 -15 -15 -15 -14 -12 -12 -12 -12
-21 -21 -21 -15 -15 -13 -13 -15 -17 -18 -15 -14 -16 -18 -18 -21 -18 -14 -15 -9 -8 -7 -8 -12 -12 -10 -13 -15 -15 -16 -18 -12 -10 -7 -6 -16 -11 -11 -9 -9 -10 -11 -11 -12 -13 -15 -14 -16 -14 -12 -12 -13 -12 -12
-20 -22 -16 -14 -13 -13 -14 -15 -17 -16 -15 -16 -17 -17 -21 -21 -17 -18 -10 -7 -7 -10 -10 -10 -13 -11 -12 -11 -13 -16 -17 -15 -14 -9 -11 -11 -9 -9 -9 -11 -11 -11 -11 -11 -12 -14 -12 -13 -13 -13 -13 -13 -13 -12
-21 -17 -14 -13 -14 -14 -15 -16 -16 -16 -16 -16 -17 -22 -23 -21 -19 -16 -8 -8 -6 -9 -10 -10 -12 -13 -12 -12 -13 -17 -14 -14 -13 -11 -11 -8 -8 -9 -13 -11 -11 -13 -12 -12 -12 -13 -13 -15 -14 -13 -13 -13 -13 -13
-18 -14 -14 -15 -14 -15 -15 -17 -16 -16 -14 -17 -21 -25 -20 -19 -18 -16 -10 -7 -9 -9 -8 -10 -12 -11 -11 -12 -16 -14 -14 -10 -11 -11 -10 -14 -13 -13 -15 -14 -13 -13 -13 -14 -13 -14 -15 -14 -14 -14 -13 -13 -13 -13
-15 -16 -16 -15 -14 -14 -17 -16 -16 -15 -17 -22 -25 -20 -16 -17 -16 -12 -10 -9 -11 -9 -8 -11 -12 -12 -10 -14 -14 -13 -14 -8 -9 -8 -12 -13 -14 -15 -16 -13 -13 -13 -13 -15 -14 -15 -14 -14 -14 -14 -14 -13 -13 -13
-17 -16 -15 -14 -14 -16 -15 -15 -16 -19 -23 -25 -22 -16 -15 -15 -15 -12 -9 -9 -9 -10 -10 -10 -12 -11 -12 -14 -12 -13 -12 -11 -10 -9 -10 -15 -13 -13 -12 -13 -13 -14 -14 -14 -15 -16 -15 -15 -15 -14 -14 -14 -13 -14
-16 -15 -13 -14 -15 -14 -14 -16 -20 -23 -23 -23 -17 -16 -15 -16 -13 -12 -11 -13 -12 -9 -9 -9 -10 -12 -12 -12 -13 -11 -12 -14 -12 -8 -12 -14 -11 -12 -13 -13 -14 -14 -14 -14 -15 -16 -15 -15 -14 -14 -14 -14 -14 -14
-14 -14 -15 -14 -13 -14 -16 -21 -22 -24 -24 -24 -22 -17 -16 -14 -13 -14 -16 -16 -15 -13 -10 -10 -10 -11 -14 -12 -11 -11 -15 -15 -13 -8 -10 -12 -12 -13 -14 -14 -14 -14 -14 -14 -14 -14 -14 -14 -14 -14 -14 -14 -14 -14
-15 -16 -12 -12 -14 -17 -20 -21 -23 -24 -24 -21 -19 -17 -16 -16 -16 -19 -21 -16 -16 -16 -10 -10 -11 -14 -14 -12 -10 -13 -16 -15 -11 -11 -15 -13 -12 -13 -14 -14 -14 -14 -14 -14 -14 -14 -14 -14 -14 -14 -14 -14 -14 -14
-15 -11 -12 -14 -17 -19 -20 -21 -21 -22 -22 -19 -19 -17 -18 -15 -17 -22 -18 -17 -15 -11 -10 -11 -13 -14 -12 -11 -13 -16 -16 -14 -13 -15 -12 -13 -13 -14 -14 -14 -15 -14 -14 -14 -14 -14 -14 -14 -14 -14 -14 -14 -14 -14
-11 -12 -14 -16 -18 -19 -19 -19 -21 -22 -21 -20 -19 -20 -18 -16 -17 -15 -15 -14 -10 -10 -11 -12 -13 -13 -12 -13 -15 -15 -15 -16 -17 -16 -13 -14 -13 -14 -14 -15 -15 -15 -14 -14 -14 -14 -14 -14 -14 -14 -14 -14 -14 -14
-12 -13 -15 -17 -17 -18 -19 -20 -21 -22 -20 -18 -15 -16 -16 -11 -10 -10 -10 -10 -10 -11 -12 -12 -13 -14 -14 -18 -16 -18 -18 -17 -13 -13 -13 -13 -14 -14 -15 -15 -15 -15 -15 -14 -14 -14 -14 -14 -14 -14 -14 -14 -14 -14
-13 -15 -16 -16 -18 -18 -19 -20 -22 -21 -18 -12 -12 -14 -11 -11 -10 -10 -11 -11 -11 -11 -12 -13 -15 -20 -16 -17 -16 -17 -17 -15 -15 -14 -14 -14 -14 -15 -15 -15 -15 -15 -14 -14 -14 -14 -14 -14 -14 -14 -14 -14 -14 -13
-14 -15 -15 -16 -17 -18 -20 -21 -19 -20 -15 -11 -11 -11 -11 -11 -11 -10 -11 -11 -12 -12 -13 -14 -17 -16 -15 -16 -14 -14 -16 -16 -13 -14 -14 -14 -14 -15 -15 -14 -14 -14 -14 -14 -14 -14 -14 -14 -14 -15 -15 -14 -14 -13
-14 -13 -14 -15 -16 -19 -20 -20 -18 -15 -12 -11 -11 -11 -11 -11 -10 -11 -11 -11 -12 -12 -12 -17 -13 -16 -15 -14 -13 -13 -14 -14 -13 -14 -14 -14 -15 -15 -14 -14 -14 -14 -14 -14 -14 -15 -14 -14 -14 -14 -15 -14 -14 -14
-12 -12 -13 -14 -16 -18 -19 -17 -15 -13 -11 -11 -12 -12 -12 -12 -11 -11 -12 -12 -12 -13 -13 -13 -18 -16 -13 -12 -13 -13 -13 -13 -14 -15 -15 -15 -15 -15 -15 -14 -14 -14 -15 -15 -14 -15 -14 -14 -14 -14 -14 -14 -14 -14
-11 -11 -12 -13 -15 -17 -19 -16 -15 -13 -11 -12 -12 -12 -12 -12 -12 -12 -12 -12 -13 -13 -13 -15 -16 -14 -13 -13 -13 -13 -13 -13 -15 -15 -15 -15 -15 -15 -15 -15 -15 -14 -15 -15 -14 -14 -15 -15 -15 -14 -14 -15 -14 -14
-11 -11 -12 -14 -15 -18 -18 -16 -14 -14 -12 -12 -13 -12 -13 -12 -12 -12 -13 -13 -13 -13 -14 -14 -15 -14 -13 -13 -13 -13 -13 -14 -15 -16 -15 -16 -16 -15 -15 -15 -15 -15 -15 -15 -15 -14 -14 -14 -15 -14 -14 -15 -15 -14
-11 -12 -12 -14 -16 -18 -16 -14 -15 -14 -14 -13 -13 -15 -13 -13 -13 -13 -13 -14 -13 -14 -15 -15 -13 -13 -13 -13 -13 -13 -13 -15 -15 -15 -16 -16 -16 -16 -16 -15 -15 -15 -15 -15 -15 -15 -14 -14 -14 -14 -14 -14 -14 -15
-11 -12 -13 -17 -18 -17 -16 -15 -15 -15 -15 -15 -15 -14 -13 -12 -13 -14 -14 -13 -13 -13 -13 -14 -13 -13 -13 -13 -13 -13 -13 -14 -15 -15 -15 -16 -16 -16 -16 -16 -15 -15 -15 -15 -15 -15 -14 -14 -14 -14 -14 -14 -14 -14
-11 -12 -14 -16 -16 -14 -14 -14 -15 -15 -14 -15 -16 -19 -16 -14 -14 -14 -17 -14 -14 -14 -14 -14 -13 -13 -13 -13 -13 -13 -13 -13 -14 -16 -16 -16 -16 -16 -16 -16 -15 -15 -15 -15 -15 -14 -14 -14 -14 -14 -14 -14 -14 -14
-12 -13 -15 -14 -14 -13 -14 -15 -15 -15 -18 -17 -19 -20 -15 -15 -19 -21 -18 -14 -15 -15 -14 -14 -13 -13 -13 -13 -13 -13 -13 -13 -13 -15 -16 -16 -16 -16 -17 -16 -16 -15 -15 -15 -14 -14 -14 -14 -14 -14 -14 -14 -14 -14
-14 -13 -14 -14 -14 -15 -16 -18 -19 -17 -17 -19 -19 -15 -15 -15 -18 -17 -16 -15 -16 -15 -14 -14 -14 -14 -13 -13 -13 -13 -13 -13 -13 -14 -15 -16 -16 -16 -17 -17 -16 -16 -15 -15 -15 -14 -14 -14 -14 -14 -14 -14 -14 -14
-16 -12 -12 -13 -14 -14 -14 -14 -14 -15 -19 -18 -17 -16 -19 -17 -18 -16 -15 -15 -15 -15 -14 -13 -13 -13 -14 -13 -13 -13 -13 -13 -13 -13 -13 -14 -16 -16 -17 -17 -17 -16 -15 -15 -14 -14 -14 -14 -14 -14 -14 -14 -14 -14
-10 -12 -13 -13 -13 -13 -14 -14 -15 -19 -15 -15 -15 -17 -17 -17 -16 -16 -15 -15 -15 -14 -13 -13 -13 -13 -14 -14 -13 -13 -13 -13 -13 -13 -13 -13 -15 -17 -17 -17 -17 -17 -16 -15 -14 -14 -14 -14 -14 -14 -14 -14 -14 -14
-11 -11 -12 -12 -13 -13 -13 -13 -14 -13 -14 -14 -13 -14 -13 -14 -14 -14 -14 -13 -13 -13 -13 -14 -14 -14 -14 -14 -14 -14 -14 -14 -13 -13 -13 -14 -14 -16 -17 -17 -17 -17 -17 -15 -14 -14 -14 -14 -14 -14 -14 -14 -14 -14
-11 -11 -12 -12 -13 -15 -13 -13 -13 -13 -13 -13 -13 -13 -13 -13 -13 -13 -14 -14 -14 -15 -15 -15 -15 -14 -14 -15 -14 -14 -14 -14 -14 -14 -14 -14 -14 -16 -17 -17 -17 -17 -17 -15 -14 -14 -14 -14 -14 -14 -14 -14 -14 -14
-12 -12 -13 -13 -13 -13 -13 -13 -13 -14 -14 -14 -14 -14 -14 -14 -15 -15 -16 -16 -16 -15 -15 -15 -15 -15 -15 -15 -15 -15 -15 -14 -14 -14 -14 -14 -14 -15 -17 -17 -17 -17 -17 -15 -14 -14 -14 -14 -14 -14 -14 -14 -14 -14
-13 -13 -13 -14 -14 -14 -14 -14 -15 -15 -15 -16 -16 -15 -16 -16 -16 -16 -16 -16 -16 -16 -15 -15 -15 -16 -16 -15 -15 -15 -15 -15 -15 -15 -14 -14 -15 -15 -16 -17 -17 -17 -16 -16 -15 -15 -14 -14 -14 -14 -14 -14 -14 -14
-14 -14 -14 -14 -14 -14 -15 -15 -15 -15 -16 -16 -16 -17 -17 -17 -17 -17 -17 -17 -16 -16 -15 -16 -16 -16 -16 -16 -16 -15 -15 -15 -15 -15 -15 -15 -15 -15 -16 -16 -17 -17 -17 -16 -15 -15 -15 -14 -15 -15 -15 -14 -14 -14